GFSWCAN_sfc_wetblb_108.txt.gz
Wetbulb
43.06 43.71 43.64 43.57 43.90 44.02 43.76 43.24 42.89 43.17 42.85 42.87 42.51 42.43 43.02 43.37 43.54 38.13 34.80 37.98 35.53 29.24 27.93 30.99 31.90 28.46 27.86 26.73 22.42 26.47 24.74 26.73 27.33 21.22 22.97 24.62 23.76 25.36 24.96 25.90 25.84 26.19 23.12 18.20 21.16 18.31 18.41 35.26 36.92 31.91 36.04 39.37 41.89 40.72
41.61 43.07 43.34 43.29 42.89 42.91 43.22 43.07 42.78 42.63 42.81 42.30 42.11 42.72 42.71 43.20 43.15 40.26 31.58 37.28 39.22 34.07 28.81 33.14 33.95 34.73 33.02 32.22 27.60 28.96 26.29 25.26 29.40 24.79 26.09 26.65 23.69 28.01 25.65 22.10 31.86 22.95 29.97 26.39 26.08 24.41 32.52 36.46 37.30 40.53 41.52 38.88 39.31 39.53
39.53 42.54 42.71 42.90 43.11 43.14 43.09 42.77 42.30 42.19 42.05 41.80 41.62 42.06 42.73 42.92 43.18 40.99 37.47 38.74 37.73 33.92 31.79 31.33 30.10 34.84 36.91 36.26 36.57 29.81 28.67 31.48 30.50 34.50 25.44 26.90 24.07 27.30 23.05 25.10 29.99 32.88 33.98 30.54 29.84 32.22 34.97 38.56 40.29 41.37 42.43 41.16 41.81 41.51
40.19 41.60 42.39 42.54 42.53 42.67 42.81 42.64 42.07 42.06 41.87 41.60 41.59 42.15 42.45 42.89 43.09 40.96 37.84 38.59 36.83 33.95 26.97 26.67 35.02 31.93 36.04 36.28 35.46 35.90 32.74 34.60 34.94 34.02 29.98 27.36 25.77 31.49 26.15 28.83 28.29 32.56 33.11 32.57 32.03 35.53 37.55 38.87 38.88 41.37 40.74 39.75 38.11 37.93
40.40 41.47 41.75 42.17 42.25 42.04 42.20 42.37 42.25 42.01 41.37 41.08 41.43 41.86 42.02 42.56 42.74 39.71 37.10 38.29 38.80 33.90 26.60 27.80 33.03 35.70 36.55 35.18 33.84 34.26 32.83 31.03 29.45 28.46 30.53 27.93 30.11 30.21 31.44 32.79 30.89 35.78 32.67 30.80 30.99 36.48 37.48 36.66 38.65 41.26 38.62 37.56 37.50 35.33
40.96 41.51 41.75 41.83 41.95 41.92 42.38 42.43 42.21 41.66 41.47 40.92 41.19 41.62 42.02 42.55 42.96 38.60 33.15 38.51 40.06 39.43 32.67 23.83 30.55 32.57 35.04 35.31 32.43 31.58 31.80 30.52 30.17 28.05 28.52 32.12 35.50 32.77 26.33 26.40 34.17 34.77 34.10 35.79 32.64 36.39 35.34 36.06 35.76 37.64 35.87 35.32 34.59 33.25
40.01 40.80 41.18 41.11 41.38 41.44 41.87 41.20 41.79 41.36 40.75 40.56 40.76 41.36 41.79 42.67 39.00 34.52 32.47 37.67 41.73 40.82 31.76 24.03 25.75 30.37 32.97 33.52 31.61 30.75 32.39 34.26 33.13 28.63 27.34 29.02 30.31 31.07 26.50 25.68 31.12 34.38 35.84 34.75 34.71 34.39 32.64 32.25 30.91 33.74 35.44 33.84 32.54 30.13
39.74 39.67 40.20 40.73 40.45 40.88 41.24 41.35 41.16 41.18 40.46 40.49 40.93 41.55 42.26 42.40 41.09 37.23 39.56 42.47 42.64 36.40 33.92 23.57 24.76 26.16 33.71 27.36 26.56 31.54 30.37 32.15 33.86 28.92 32.04 30.19 30.32 28.59 25.97 30.70 29.93 30.63 32.65 32.70 33.60 33.33 31.66 32.02 31.82 32.13 32.66 34.03 30.87 28.47
40.19 40.47 40.40 40.74 40.49 41.06 41.22 41.20 40.91 40.57 40.29 40.75 41.15 41.79 40.70 38.61 34.10 37.19 43.22 43.18 41.13 35.82 29.46 29.26 20.83 17.39 35.19 33.30 34.87 33.83 31.69 27.62 30.63 29.79 28.47 29.59 27.86 25.59 28.36 28.22 27.62 27.26 27.02 26.92 31.82 28.66 28.17 26.59 26.66 28.87 29.91 29.93 30.37 28.99
40.06 39.92 40.05 40.20 40.43 40.69 40.75 40.81 40.68 40.20 40.34 41.05 39.93 33.94 29.70 34.46 42.04 42.85 37.74 34.10 32.29 32.07 33.71 25.98 25.56 21.51 30.14 31.37 30.02 30.74 32.41 23.91 23.94 27.87 31.41 29.42 26.92 27.98 27.63 27.35 27.25 26.84 26.85 26.44 25.71 24.72 23.60 22.73 23.15 24.87 25.92 26.86 27.44 27.66
39.20 39.38 39.65 39.89 39.86 39.87 40.33 40.53 40.24 40.47 41.17 36.35 31.54 31.93 36.92 42.28 39.02 34.62 29.29 28.51 30.15 26.85 30.65 28.69 27.40 24.24 32.53 27.78 29.60 31.49 29.46 28.05 23.53 24.37 26.68 25.87 23.81 23.81 25.86 25.61 26.21 25.97 25.31 23.50 24.14 24.04 23.88 22.31 20.98 22.50 22.87 23.48 24.26 24.26
38.60 38.70 38.54 38.51 38.95 39.32 40.07 40.31 41.08 39.80 35.01 36.01 37.89 40.57 40.30 36.02 32.29 27.80 26.01 28.53 27.35 24.07 25.10 27.39 28.92 29.72 32.40 36.91 31.15 31.66 27.69 27.66 22.49 29.74 26.66 20.92 19.62 23.59 23.58 22.83 22.85 25.04 23.68 21.87 21.83 21.32 21.09 20.39 19.57 20.64 19.46 19.31 19.88 22.20
38.64 38.56 38.20 38.36 39.26 39.13 40.08 41.20 41.04 40.22 39.50 40.23 37.29 33.00 31.51 29.73 24.66 18.96 18.20 24.21 24.07 23.98 23.59 28.03 29.67 28.58 33.11 35.20 31.30 30.24 27.04 24.81 31.95 24.47 17.59 18.20 22.57 23.12 22.48 22.52 21.89 23.06 22.13 20.67 19.51 19.10 18.41 17.75 16.53 16.28 15.15 16.40 17.37 16.27
38.12 38.92 39.91 40.33 40.43 40.95 41.83 41.71 41.74 40.53 38.87 33.49 29.87 24.38 23.92 21.68 23.42 21.58 25.29 25.78 26.61 31.29 30.82 28.40 31.51 31.65 32.05 30.59 30.57 25.48 28.61 28.68 24.03 15.34 13.85 17.83 21.63 22.08 22.36 22.13 20.72 18.75 18.07 17.43 14.55 15.37 14.38 14.38 12.63 12.45 11.82 13.97 13.70 13.44
39.69 39.79 40.17 40.50 41.36 41.31 41.78 41.58 41.48 39.57 34.01 28.77 26.14 18.71 23.82 21.45 21.86 23.75 30.18 28.71 28.33 29.97 31.27 30.97 30.24 29.74 29.01 28.43 28.61 26.78 23.81 14.64 14.42 13.09 15.20 20.04 22.67 21.74 20.48 20.57 17.64 15.46 11.05 10.34 8.54 7.96 6.27 7.33 8.77 7.25 9.86 10.55 10.99 9.65
40.26 40.15 39.59 41.42 41.67 41.73 42.65 41.29 37.32 34.53 29.05 24.71 20.96 22.15 24.53 19.34 17.96 21.52 24.07 25.01 28.04 27.38 29.68 31.72 29.60 26.39 24.60 26.49 23.62 17.56 17.27 13.12 12.28 16.48 20.12 20.39 19.95 19.91 19.05 18.69 14.36 12.49 12.10 8.87 9.19 10.50 8.28 5.96 4.98 6.24 7.68 8.18 7.86 7.83
41.77 41.02 43.45 43.61 43.28 41.09 39.83 34.30 32.27 27.95 25.15 21.34 14.81 19.84 14.14 13.84 13.13 18.38 20.85 21.69 25.85 24.91 28.37 27.58 24.21 19.74 22.07 17.83 15.39 14.65 8.22 13.26 16.22 17.18 17.43 16.67 17.25 18.52 18.00 17.92 16.07 14.88 11.13 9.34 7.27 8.27 5.26 6.98 7.86 7.74 4.70 5.86 7.06 7.40
41.29 43.60 43.92 42.41 38.87 36.87 34.17 32.06 28.15 24.93 19.55 19.65 14.56 14.06 12.25 12.31 14.39 15.21 18.00 19.86 22.25 26.35 25.22 19.18 21.59 14.57 5.57 12.44 8.77 11.39 15.15 16.81 16.00 14.51 15.04 12.37 10.32 8.86 15.51 15.10 14.56 14.88 12.49 9.83 8.11 5.24 5.03 5.55 6.52 5.13 4.86 4.81 4.61 3.92
39.30 39.35 40.42 40.62 37.64 32.12 28.87 27.53 27.31 19.34 19.26 19.44 19.58 19.73 16.31 16.16 18.63 17.68 17.48 19.99 22.29 22.57 21.02 16.89 10.09 4.12 3.83 10.66 7.85 8.93 11.68 15.28 12.76 13.46 13.70 8.68 10.57 10.46 9.94 11.76 14.70 13.38 12.63 10.08 11.13 8.09 5.62 6.49 7.01 7.02 6.29 5.67 4.38 3.26
40.92 40.48 40.32 39.92 38.08 29.95 25.52 24.02 26.74 20.93 14.75 16.85 17.45 15.11 15.37 12.72 14.15 11.20 16.16 18.07 18.94 16.61 11.70 8.43 6.21 8.22 8.75 12.34 13.41 15.02 17.20 19.98 18.90 15.43 13.44 11.85 9.34 7.84 4.31 7.35 6.04 6.00 8.99 9.26 8.76 10.20 9.06 7.51 8.25 7.22 5.21 3.36 2.81 4.54
38.46 38.01 38.72 35.80 31.41 28.50 24.84 23.04 21.01 20.58 20.37 15.92 18.09 17.90 11.57 14.15 10.72 11.25 12.14 17.20 12.75 9.98 9.00 8.41 8.94 13.19 14.94 15.69 17.13 19.58 18.23 18.91 16.67 17.91 16.55 12.17 13.74 14.09 9.17 9.21 9.88 9.16 7.35 4.35 4.91 4.20 3.82 4.04 5.86 6.52 1.82 0.42 5.43 8.77
34.67 37.74 30.84 32.71 28.68 27.10 23.68 23.82 22.33 22.53 19.99 18.75 17.83 17.68 6.26 3.36 3.56 8.27 16.01 11.04 9.77 10.18 10.36 10.56 12.68 13.86 14.16 13.01 14.03 15.78 17.45 17.65 16.81 16.51 16.15 16.48 13.72 13.21 11.52 10.87 10.95 8.15 8.11 7.78 10.75 8.72 10.46 11.53 10.19 9.30 5.56 5.46 8.40 7.35
34.26 32.58 28.40 27.87 21.30 17.54 17.73 28.21 19.25 20.92 13.46 16.60 17.14 11.80 8.13 6.55 10.96 17.73 7.84 12.70 10.06 16.09 15.03 14.98 14.58 15.76 14.96 15.56 16.16 15.09 15.69 15.99 13.65 13.39 13.95 13.50 14.02 14.04 14.22 14.07 13.06 10.38 10.21 11.29 13.01 11.37 10.85 11.77 10.86 9.10 10.09 9.88 8.09 6.94
29.26 21.25 17.82 15.48 17.94 14.39 20.71 16.65 23.44 19.90 17.46 14.16 12.13 10.19 10.99 11.79 15.43 10.19 6.98 8.09 11.92 16.34 15.90 16.13 16.33 13.27 11.98 10.75 8.59 8.23 8.23 10.38 8.03 8.32 9.10 10.30 11.12 11.18 12.84 13.72 14.21 14.74 15.00 14.80 13.56 10.81 9.44 5.89 8.33 8.46 6.18 5.27 4.40 3.51
20.06 14.06 13.93 6.00 11.22 8.77 4.25 1.66 6.24 11.23 4.37 7.43 9.45 8.59 9.15 11.83 1.65 -0.86 -3.03 2.33 5.37 3.77 4.21 7.18 8.82 7.83 4.60 2.56 5.20 5.75 7.80 7.95 5.30 5.74 8.86 10.34 8.37 9.65 11.76 12.51 12.19 12.36 14.69 9.26 6.57 6.37 5.68 6.94 7.46 5.49 6.16 1.93 4.79 1.40
6.50 5.85 6.54 6.85 5.54 8.63 6.70 3.03 0.98 2.06 2.37 1.79 5.01 6.55 2.63 -2.82 -7.33 -7.38 2.93 -1.07 -2.85 -1.77 -7.02 -2.91 0.30 3.63 4.39 3.46 2.04 3.12 3.66 5.27 7.03 4.96 7.47 10.20 9.52 0.73 0.58 2.57 4.47 7.86 12.26 9.47 9.42 7.44 7.62 6.02 6.74 7.88 6.01 7.17 6.14 2.86
1.69 3.00 12.42 15.83 16.10 12.68 3.61 4.90 9.83 4.68 -1.21 0.05 0.02 -6.08 -6.25 -12.12 -12.09 -1.21 8.22 4.02 4.68 1.29 2.74 3.26 6.33 6.10 5.03 5.30 7.51 7.34 6.00 6.48 6.06 7.83 9.42 9.14 8.83 9.07 3.96 -0.49 1.50 6.89 11.62 9.60 5.90 5.11 5.82 5.65 6.15 7.20 5.96 5.29 4.04 4.31
6.57 9.06 4.41 0.48 2.82 6.99 -3.33 -4.49 -5.02 -3.93 -1.76 7.22 1.99 -9.03 -8.72 -6.84 -2.95 2.75 4.29 2.70 5.40 9.30 7.77 6.64 6.37 5.55 4.00 2.17 1.24 4.92 5.34 2.38 2.03 2.93 3.57 4.09 2.73 2.72 1.42 1.07 1.16 8.83 4.18 7.83 5.37 3.38 3.15 2.97 4.20 4.02 3.85 2.09 -0.24 0.52
0.93 4.09 5.92 -4.32 -0.80 -0.44 -1.76 -5.02 -2.67 6.39 9.08 0.55 -7.26 -8.83 -1.40 5.46 1.40 1.87 4.00 5.11 7.30 6.63 1.67 -0.84 -6.65 -9.37 -4.70 -3.70 -5.79 -4.85 -2.39 -1.62 -2.18 -5.93 -10.28 -12.09 -11.91 -5.01 -3.46 -3.78 -5.94 -5.94 -8.29 -1.82 7.31 4.00 0.84 -1.12 -1.58 -3.18 -3.90 -4.00 -4.84 -3.60
2.76 6.51 -0.85 -7.61 -6.50 -3.39 -3.59 0.46 -1.10 -2.17 5.74 3.75 7.66 8.72 5.89 2.80 3.70 2.90 5.44 3.06 2.02 -3.67 -9.77 -10.68 -13.36 -13.77 -13.19 -13.19 -13.54 -8.83 -9.56 -11.73 -8.29 -2.81 -8.29 -12.82 -10.51 -10.11 -14.81 -15.36 -12.45 -11.19 -14.63 -12.27 -9.01 0.92 7.64 2.59 2.36 -4.91 -7.40 -7.94 -10.10 -9.92
6.80 1.52 -1.92 -1.35 -2.12 0.00 -0.95 -5.96 -6.85 -6.53 -8.87 -7.59 -10.10 -6.85 -2.52 -0.70 4.23 5.13 3.33 -2.68 -6.29 -7.92 -6.29 -11.91 -13.54 -18.26 -13.91 -16.62 -17.35 -16.27 -12.66 -13.19 -18.44 -15.36 -14.63 -16.08 -16.81 -17.71 -18.80 -20.07 -20.79 -22.06 -18.98 -15.90 -15.54 -14.45 -12.82 -15.54 -17.71 -15.72 -13.36 -13.18 -15.90 -15.90
-2.48 -5.22 -1.11 -2.53 -0.88 -2.25 -2.73 -10.29 -11.19 -10.48 -13.36 -7.39 -10.28 -15.36 -10.10 -8.52 -8.65 -1.18 -2.15 -7.57 -11.19 -8.67 -13.36 -17.35 -12.27 -10.10 -15.90 -20.61 -24.24 -23.51 -16.27 -18.62 -18.44 -18.98 -18.07 -19.53 -20.07 -21.70 -22.24 -20.98 -23.51 -19.53 -17.17 -17.89 -18.98 -19.53 -16.44 -7.96 -13.54 -16.08 -19.16 -19.71 -20.61 -19.89
-3.85 -5.80 -5.41 -1.44 -1.95 -0.67 -0.22 -1.66 -1.79 -3.93 -8.65 -9.01 -9.19 -12.64 -12.09 -7.89 -6.57 -2.18 -2.90 -5.22 -4.33 -3.26 -8.19 -12.51 -16.62 -15.72 -15.91 -15.57 -15.39 -19.16 -18.98 -20.79 -19.16 -7.92 -10.46 -10.64 -15.72 -15.36 -23.33 -25.15 -23.15 -18.80 -16.81 -18.44 -21.34 -20.79 -18.80 -17.89 -19.16 -18.98 -19.89 -21.52 -23.33 -24.24

GFSWCAN_sfc_wetblb_111.txt.gz
Wetbulb
40.80 41.74 42.62 43.60 43.75 44.10 44.70 44.72 44.11 44.02 43.70 43.55 43.06 43.05 43.38 43.47 43.37 39.53 37.67 38.10 36.60 30.37 29.61 31.49 32.27 29.08 29.74 29.31 25.45 28.16 27.22 29.63 28.80 25.06 24.69 24.63 24.08 26.23 26.14 27.36 26.98 26.95 25.39 23.76 25.54 22.67 19.40 36.78 38.12 33.92 38.11 42.02 43.04 43.32
40.11 41.27 41.29 42.83 43.84 44.08 44.56 44.34 43.66 43.71 43.57 43.20 42.89 43.18 42.97 43.28 43.18 40.35 33.93 37.87 40.71 33.95 29.98 33.96 34.88 35.60 35.13 34.23 30.55 30.47 27.90 28.80 30.91 27.67 27.83 27.31 25.09 27.41 25.59 22.93 31.31 26.31 30.28 27.34 27.62 27.72 34.35 40.27 39.68 42.07 42.24 41.45 41.77 43.35
39.06 40.18 40.73 40.95 43.20 43.43 43.88 43.80 43.16 43.19 43.03 43.14 42.49 42.17 42.16 42.66 43.09 40.63 35.24 37.59 38.00 34.03 32.13 31.65 30.86 35.78 37.46 36.89 37.40 29.31 32.13 33.53 31.92 34.99 30.62 27.21 23.73 29.35 23.22 24.21 27.22 31.49 35.47 31.39 30.75 34.40 36.67 38.64 41.95 41.12 41.58 40.86 42.38 43.25
38.50 39.05 40.16 38.60 42.59 42.96 42.51 43.41 42.54 42.69 42.49 42.55 42.20 41.92 42.20 42.80 43.05 41.65 36.66 38.94 37.34 33.50 27.63 28.32 35.84 33.32 37.57 37.33 36.41 36.47 34.85 36.91 36.30 34.57 29.91 28.46 26.01 32.00 27.70 28.63 27.80 31.21 33.35 32.06 31.72 35.03 37.11 35.92 38.74 40.03 38.77 38.36 37.67 37.34
38.13 38.76 39.84 39.28 42.36 42.71 43.15 42.89 42.49 42.38 42.52 41.57 41.83 41.85 42.27 42.70 42.67 40.10 37.32 37.99 39.22 33.38 26.50 28.53 33.77 36.12 37.42 35.76 34.78 35.23 34.45 33.14 31.92 29.11 28.18 26.33 31.39 30.98 32.23 31.53 30.92 34.83 30.58 27.57 28.49 33.13 34.81 31.81 34.62 37.74 36.68 37.06 36.53 34.91
38.29 38.82 39.57 39.46 42.00 42.56 42.48 42.68 42.39 42.32 42.15 41.81 41.14 41.47 42.22 42.55 41.55 38.86 32.76 37.92 39.40 38.81 31.24 25.13 33.15 32.86 36.45 35.26 33.98 33.05 33.53 32.62 32.39 29.91 29.42 32.19 35.19 32.74 27.73 25.96 33.99 35.16 34.06 32.61 30.73 34.61 32.92 35.11 33.79 34.94 34.16 33.65 32.89 31.95
38.32 38.74 38.99 40.31 41.47 42.36 42.53 42.53 42.39 42.19 41.96 41.59 41.19 41.61 42.20 42.54 39.50 32.87 29.79 36.99 40.83 39.82 32.06 27.05 27.20 32.57 34.82 33.86 32.71 32.16 33.51 33.20 32.53 31.07 30.49 31.56 31.87 32.87 29.22 24.76 30.82 32.13 35.18 33.98 33.13 32.42 30.43 30.58 30.00 32.23 34.43 32.22 31.90 29.82
38.56 38.85 39.26 40.79 41.94 42.01 41.75 41.99 42.23 42.11 41.56 41.27 40.92 41.41 41.94 42.23 40.64 36.30 39.07 41.44 41.52 36.11 34.54 27.35 26.00 28.70 34.73 30.27 29.75 33.08 30.68 32.85 34.28 32.88 32.60 30.95 31.99 31.78 26.84 29.57 29.53 29.20 31.03 29.75 31.06 31.05 29.95 30.21 30.62 31.10 32.55 33.91 30.26 28.31
39.19 39.38 41.33 41.49 41.59 41.80 41.58 41.86 41.62 41.64 40.86 41.02 40.75 41.21 39.13 37.59 34.16 36.63 42.47 42.26 40.51 35.41 29.21 28.24 24.54 22.01 35.40 33.85 34.15 32.71 33.71 27.65 33.31 30.00 29.65 30.93 29.11 25.74 28.25 27.92 27.13 27.18 25.78 25.45 29.16 27.60 26.89 25.15 26.04 27.44 27.61 28.29 28.53 27.86
40.13 39.82 40.74 41.09 41.22 41.38 41.37 41.58 41.27 41.32 40.98 40.88 38.64 32.95 30.19 34.50 41.67 42.69 37.74 33.68 32.38 32.71 33.07 28.43 28.70 24.87 32.42 31.80 31.36 31.82 32.46 29.52 25.64 29.58 32.75 29.25 27.82 27.43 27.02 26.85 26.22 25.91 24.76 24.85 24.36 23.22 23.31 22.32 22.48 24.05 24.08 25.02 25.81 25.79
40.42 39.79 40.73 40.81 41.09 41.51 41.40 41.47 41.74 41.31 40.36 35.92 31.64 31.33 37.48 42.21 38.56 34.15 29.98 29.27 29.21 27.82 30.63 30.75 28.84 27.41 33.01 29.15 30.30 32.91 29.62 28.75 24.04 26.57 27.34 26.53 23.97 23.26 25.41 24.31 25.88 25.69 24.42 22.96 23.38 22.85 22.64 21.07 20.65 21.70 21.44 22.05 22.80 23.81
40.28 39.96 40.04 40.52 40.71 41.13 41.29 41.31 41.31 37.90 36.46 35.66 36.36 39.74 38.33 35.62 32.23 28.18 26.14 29.06 27.34 24.99 27.88 27.74 29.26 30.41 31.76 36.60 31.37 31.69 29.00 28.55 21.97 30.36 27.26 22.38 20.21 22.99 23.26 22.72 23.82 23.63 22.78 21.54 21.03 20.08 20.12 19.20 19.00 19.66 18.69 18.55 18.95 20.25
40.22 40.07 40.09 40.46 40.87 40.62 40.90 40.90 40.81 39.93 39.42 38.76 35.43 32.23 31.79 29.95 24.61 19.47 20.68 24.99 24.92 27.17 27.18 30.14 28.86 30.34 31.91 35.39 32.06 30.78 27.34 24.18 31.92 26.60 20.58 19.18 22.31 22.87 22.83 22.59 21.70 21.84 21.00 19.51 18.40 18.34 17.97 16.68 15.49 15.45 14.88 16.06 17.72 16.23
39.76 39.98 40.11 39.96 40.25 40.49 40.51 40.62 40.67 40.00 37.61 32.20 30.29 23.60 23.35 21.16 23.89 24.19 26.40 27.50 28.55 30.36 29.26 30.93 31.17 30.64 32.09 31.32 30.83 27.13 28.72 29.36 23.42 17.77 15.52 19.54 22.18 22.11 22.52 22.41 20.66 18.51 17.44 16.50 14.34 14.70 13.44 13.34 12.45 12.20 11.78 13.81 13.18 13.40
39.39 39.70 39.49 39.11 40.02 40.16 40.70 41.23 41.17 38.22 32.91 29.94 27.98 19.38 22.89 23.64 26.25 27.89 30.34 28.84 28.39 30.85 31.96 31.72 32.23 32.02 30.64 29.11 30.18 28.06 25.15 17.31 16.59 15.08 17.65 21.46 22.58 21.39 20.48 20.42 18.87 17.63 15.93 13.86 12.12 10.43 9.08 9.68 10.07 9.08 9.96 10.93 11.55 10.45
38.53 38.25 36.73 39.88 40.23 40.63 41.15 39.87 35.29 34.31 29.55 25.26 20.89 22.54 25.16 22.91 22.29 22.70 24.40 25.38 26.60 26.86 30.16 30.81 30.36 27.27 26.11 26.94 24.25 18.87 18.67 15.41 15.17 18.58 20.55 21.08 20.38 20.21 19.47 18.91 16.59 15.14 14.19 12.42 12.07 12.22 10.19 7.70 7.76 8.28 8.32 8.74 8.50 9.53
39.16 37.22 40.09 40.68 41.05 41.38 40.31 34.22 33.15 28.11 25.18 21.03 15.87 18.92 16.66 17.14 16.54 19.15 20.51 20.28 24.22 24.97 29.24 29.10 26.24 22.65 24.55 19.19 15.52 15.61 13.32 16.75 18.67 18.65 19.61 19.66 19.08 17.72 17.32 18.80 17.44 16.37 13.42 12.37 10.94 10.99 9.81 10.22 10.25 9.88 8.23 8.95 9.63 9.88
37.60 40.24 41.41 41.73 40.88 35.56 33.92 32.56 28.49 24.55 18.55 19.23 15.63 15.78 15.13 13.98 13.99 16.82 18.70 20.42 22.27 25.99 25.61 21.45 22.54 17.47 13.81 15.40 11.91 14.32 17.26 18.39 19.27 18.88 18.21 16.87 16.42 14.79 17.17 16.45 16.11 16.96 14.93 13.41 11.95 10.42 10.15 9.93 9.87 10.12 9.39 9.86 9.87 9.82
41.24 40.97 41.04 39.71 37.40 32.74 29.03 27.69 27.40 19.13 19.29 19.36 19.25 19.00 16.45 16.70 18.44 17.45 18.80 20.81 22.70 22.46 21.03 17.74 11.91 8.68 9.20 12.90 13.49 15.01 17.47 18.58 18.13 18.43 17.87 15.38 15.71 15.30 13.76 14.74 15.06 14.43 13.71 13.79 14.02 12.56 11.84 10.97 11.51 11.65 11.53 11.41 9.69 10.01
40.62 40.05 39.85 39.74 37.51 29.30 24.79 24.29 27.89 20.99 16.22 17.12 17.15 15.52 14.95 12.82 15.79 15.16 17.58 19.11 18.86 17.06 12.77 9.91 9.32 10.96 13.26 15.03 16.13 16.81 18.87 21.39 20.14 18.50 17.95 17.48 15.75 14.19 13.09 14.31 13.76 13.05 13.35 12.71 12.75 11.80 12.32 11.22 11.83 11.85 11.58 10.63 10.03 9.12
38.72 38.12 38.10 35.60 31.00 28.59 25.03 23.14 21.35 20.76 19.58 15.16 18.28 17.97 13.72 14.54 12.65 12.89 14.33 17.53 13.35 11.17 9.71 12.06 12.32 15.01 16.89 17.25 18.26 19.70 18.19 19.26 17.40 19.11 18.52 16.50 16.61 16.80 14.76 14.32 13.93 13.75 12.69 11.38 11.54 10.52 10.43 10.98 11.34 11.43 11.01 10.41 10.85 11.55
34.72 37.59 32.34 32.79 27.93 26.57 23.74 24.52 22.05 22.49 19.92 18.54 17.88 17.08 9.82 7.76 6.97 10.33 16.34 12.19 11.63 12.17 13.76 13.98 13.95 15.08 14.62 13.78 15.21 16.55 17.73 17.76 17.65 17.45 16.96 17.53 15.83 15.58 15.13 14.99 14.72 12.95 12.77 12.90 12.93 12.20 12.34 12.68 12.96 12.13 11.55 11.37 11.90 11.90
34.20 31.92 27.54 27.60 21.49 18.00 17.68 27.58 20.20 20.83 13.49 15.54 17.05 12.54 9.94 9.39 13.10 17.18 9.10 12.88 13.14 16.74 16.41 15.67 15.79 16.54 15.11 15.83 15.77 14.08 14.25 15.38 13.39 13.53 14.72 14.75 15.04 15.13 15.36 15.69 15.63 13.95 12.97 13.47 14.36 13.57 12.75 12.58 12.20 12.26 12.35 12.20 11.80 11.11
28.87 20.29 16.73 15.88 18.26 13.96 19.74 15.19 22.80 19.40 16.94 14.62 13.18 9.26 9.38 11.27 15.27 10.73 7.41 9.66 12.40 16.81 15.82 15.78 14.97 11.72 11.61 10.63 9.19 8.86 9.61 11.89 11.17 11.15 11.43 13.09 12.42 13.05 14.65 14.83 15.29 15.70 15.85 15.49 14.68 13.27 12.92 12.45 11.82 11.94 10.98 10.42 10.07 9.87
20.89 13.06 13.13 6.10 11.37 9.39 5.08 3.18 7.36 11.79 5.40 8.01 9.87 10.03 8.67 12.88 4.68 1.81 2.64 6.52 8.82 7.88 6.11 8.30 10.29 10.03 7.71 6.83 8.25 9.14 8.82 10.96 10.81 9.90 10.73 12.34 12.03 13.13 13.13 13.52 13.30 13.51 15.12 14.27 12.72 12.17 11.52 11.67 11.44 10.83 10.36 9.89 9.12 8.19
8.46 6.22 7.72 6.02 5.46 9.00 6.89 3.47 1.08 3.02 4.21 2.31 6.34 6.99 4.95 1.80 -2.59 -3.15 5.80 5.40 5.41 6.33 3.42 5.46 6.94 7.84 7.37 7.59 8.13 8.86 9.25 9.89 10.54 8.89 9.63 11.03 10.05 9.70 8.64 8.76 9.84 11.09 13.37 13.25 12.96 12.36 11.56 11.52 10.86 10.23 9.92 9.31 7.45 7.74
3.01 3.36 12.19 14.58 14.88 12.01 5.04 5.75 10.00 5.91 0.97 2.31 3.73 -2.37 -2.39 -7.65 -6.57 1.82 8.10 6.95 9.67 7.21 7.11 7.87 10.03 9.93 8.52 7.89 8.58 8.49 8.52 9.49 9.77 9.23 9.70 9.17 8.74 8.74 7.82 6.96 6.65 8.86 11.65 11.93 11.59 12.21 11.96 11.22 11.04 10.85 10.15 9.96 9.72 9.17
6.33 7.98 4.24 1.15 2.32 6.52 -2.02 -2.62 -2.96 -1.50 1.24 7.50 3.58 -6.39 -4.86 -2.62 0.14 6.15 8.95 6.09 6.90 9.12 7.78 7.02 7.19 7.57 6.79 5.38 5.63 8.38 7.95 6.43 6.66 6.91 7.43 6.86 5.16 4.37 3.01 3.50 3.02 5.05 3.86 7.75 11.78 10.24 10.61 10.23 10.18 9.79 9.75 9.60 8.47 8.27
0.81 4.24 6.07 -4.93 -1.95 -0.56 -1.85 -3.47 -0.27 6.90 8.46 1.78 -4.51 -5.46 -0.43 6.08 4.85 5.91 7.32 8.73 9.39 8.33 4.61 2.73 -0.80 -1.53 -0.67 -0.64 -2.78 -0.97 2.28 5.72 5.89 0.74 0.81 2.07 0.73 4.25 0.56 -0.09 1.11 1.10 1.55 6.24 9.55 10.44 7.80 7.10 6.76 7.04 5.31 6.26 4.55 6.31
2.13 6.71 -0.01 -6.08 -7.30 -4.38 -2.28 1.05 1.48 1.42 5.31 4.79 7.82 7.82 5.71 3.96 4.40 5.05 7.19 6.16 5.62 2.89 -0.40 -0.35 -3.18 -1.21 -0.38 0.51 -1.66 -1.71 -4.99 -5.70 -0.74 4.66 3.04 1.08 0.91 0.23 -2.93 -3.11 -2.02 -1.29 -2.29 2.49 4.99 6.95 8.16 6.04 6.47 4.21 3.36 2.57 3.16 3.31
5.59 1.17 -2.73 -2.66 -3.65 0.44 0.94 -3.30 -7.16 -4.41 -5.70 -3.97 -6.21 -2.18 0.90 2.72 6.04 5.07 2.69 -0.45 -2.97 -4.98 -1.90 -3.50 -6.01 -8.95 -3.81 -4.96 -2.38 -2.95 -2.59 -3.30 -10.36 -7.28 -4.56 -4.03 -4.19 -3.11 -3.83 -6.19 -6.91 -7.10 -3.70 -0.83 0.50 1.58 1.09 -0.07 0.32 1.20 1.81 0.36 -3.65 -1.74
-4.49 -7.50 -3.88 -5.10 -2.24 -0.19 0.79 -5.51 -7.64 -4.59 -4.01 -0.02 -3.83 -9.46 -4.98 -1.85 -1.30 3.47 -0.51 -0.63 -0.85 -1.66 -6.19 -4.75 -1.84 -0.65 -6.55 -9.12 -12.57 -10.23 -12.56 -6.25 -6.80 -7.67 -7.28 -5.71 -4.36 -7.04 -8.13 -8.01 -9.09 -5.32 -2.82 -2.39 -2.74 -3.29 -1.50 -0.45 -0.87 -1.21 -2.39 -3.83 -5.28 -5.65
-7.33 -8.73 -7.64 -0.63 -2.02 -0.05 0.03 1.26 0.27 -0.81 -2.93 -2.56 -5.46 -10.00 -7.10 -2.18 -1.27 1.69 -1.11 -1.66 0.33 0.79 -2.32 -4.06 -5.88 -6.49 -7.97 -7.95 -5.91 -8.56 -12.21 -8.55 -13.26 -4.01 -9.27 -9.27 -13.44 -10.18 -9.27 -8.91 -6.91 -5.08 -3.69 -3.92 -5.17 -4.44 -4.01 -4.56 -4.93 -5.67 -7.10 -8.36 -9.45 -9.83

GFSWCAN_sfc_wetblb_114.txt.gz
Wetbulb
40.55 41.11 41.96 42.87 43.94 44.56 45.27 45.57 45.26 44.69 44.72 44.65 44.42 44.26 44.36 43.85 44.21 43.30 41.21 43.73 39.02 34.06 34.89 35.05 35.25 32.46 32.85 32.31 28.27 32.46 31.60 32.70 33.51 28.33 28.55 27.98 26.94 29.38 27.96 29.20 28.44 27.96 27.53 28.79 28.99 24.82 22.17 39.23 39.86 34.15 39.07 43.67 43.29 43.45
39.55 40.05 41.33 41.96 42.57 43.35 43.28 45.26 44.52 44.24 44.57 44.21 43.89 44.09 43.58 43.75 43.88 43.50 38.84 42.76 42.47 36.16 35.62 38.38 39.09 39.72 38.36 37.37 34.19 34.10 31.70 30.66 34.09 30.59 32.14 31.54 27.89 29.99 28.62 23.99 34.02 28.05 30.66 29.65 30.28 31.36 39.06 41.32 39.33 42.28 43.74 42.33 43.45 44.14
38.80 39.40 40.09 41.34 42.06 42.86 42.99 43.14 43.79 43.94 44.20 43.81 43.71 43.76 43.45 43.66 43.77 42.99 41.25 41.04 39.22 34.13 33.65 34.73 34.79 39.93 41.83 40.98 41.93 32.04 33.61 35.65 34.93 36.67 33.25 30.29 25.32 31.78 25.87 27.90 29.87 32.17 35.64 31.40 32.39 35.95 35.92 35.54 39.01 41.30 41.07 41.68 43.40 44.64
38.73 38.74 39.36 40.35 40.99 40.81 43.34 43.93 44.28 43.65 43.54 43.69 43.30 43.23 43.61 43.10 43.53 43.00 40.63 42.49 38.61 35.46 29.55 33.05 40.52 37.73 41.86 42.24 40.77 40.11 38.19 39.49 39.36 36.45 31.90 31.22 27.58 34.07 29.88 29.27 28.17 31.97 33.26 30.98 32.13 33.61 33.94 33.14 34.41 37.58 38.44 38.30 37.57 40.01
38.47 38.54 39.04 39.67 40.47 38.85 42.22 43.49 43.81 43.18 43.27 43.49 43.23 43.13 42.49 42.78 43.24 44.13 43.60 43.05 42.50 36.13 29.00 32.27 38.08 40.33 41.18 40.68 39.68 39.87 38.21 36.54 32.85 31.95 29.98 28.27 33.24 32.89 33.01 32.51 30.85 34.99 30.27 28.01 27.97 32.23 32.64 31.21 34.08 35.73 33.80 33.66 36.05 36.63
38.59 38.41 38.62 39.05 40.20 38.33 41.03 42.94 43.33 42.34 42.67 43.16 43.06 42.59 42.67 42.78 43.23 41.30 34.42 41.88 43.74 41.32 33.74 28.36 38.65 37.15 39.57 40.13 38.27 37.92 37.99 35.72 33.62 30.74 29.65 33.23 36.83 33.53 29.56 28.48 33.95 35.09 34.45 32.64 30.06 34.39 32.87 33.85 33.87 35.83 33.23 32.28 32.28 31.95
38.52 38.53 38.58 38.87 39.67 38.11 42.52 42.16 40.99 41.05 42.41 42.49 42.88 42.51 42.25 42.68 42.75 37.06 35.95 39.82 42.71 42.69 32.97 27.56 31.60 37.40 38.75 38.34 37.01 35.46 36.89 35.67 34.08 32.13 31.60 33.39 35.00 35.37 31.17 26.85 32.31 32.56 32.85 33.64 33.08 32.65 31.69 30.61 30.11 32.62 35.35 34.45 33.89 33.43
38.41 38.65 38.73 38.85 39.73 39.21 42.55 42.44 42.33 41.77 42.26 42.21 42.42 42.18 42.38 42.30 41.23 38.10 41.29 42.33 42.63 37.41 35.93 27.56 29.79 33.55 38.97 33.68 32.70 35.92 32.26 33.87 33.71 34.50 35.04 33.42 35.51 34.66 28.52 32.33 31.80 30.65 32.15 30.48 31.39 31.22 29.82 31.08 32.14 31.26 33.07 34.78 31.98 30.99
38.41 38.50 38.91 39.22 39.53 41.23 42.46 42.53 42.68 41.85 42.09 42.25 42.31 42.03 40.83 38.58 35.51 38.22 42.27 41.29 41.70 36.37 30.95 29.75 28.30 28.62 37.10 34.80 35.83 34.33 34.31 28.70 35.86 31.86 32.08 34.13 31.14 28.04 29.77 29.92 28.89 28.24 26.53 26.72 30.55 29.45 29.08 27.34 28.40 28.96 29.09 29.92 30.15 29.86
38.46 39.17 39.66 40.00 39.89 41.47 42.43 42.45 42.60 42.06 42.15 41.77 40.91 34.97 31.31 36.38 41.65 42.79 38.48 34.66 34.22 34.15 33.57 28.30 35.57 31.09 35.88 34.14 33.42 34.41 33.57 31.16 28.09 32.17 35.59 30.99 29.42 28.57 27.92 28.21 28.26 27.48 27.13 27.92 26.06 24.47 24.43 23.85 25.02 25.47 25.36 26.07 27.34 27.60
38.97 39.14 39.93 40.69 41.59 41.61 41.78 41.52 42.07 42.02 41.38 37.97 33.08 32.62 39.86 42.14 38.87 35.00 31.01 30.25 30.76 28.77 31.24 32.05 33.59 31.52 37.90 31.44 30.76 35.56 32.60 32.17 26.93 30.09 29.50 28.85 27.11 24.98 27.26 27.02 28.39 27.51 27.24 26.00 25.75 24.81 24.87 23.23 22.98 23.93 24.28 24.46 24.46 25.26
39.83 39.84 41.42 41.45 41.61 41.78 41.78 41.27 41.00 39.95 37.59 37.44 38.35 40.00 38.36 35.84 32.99 29.91 28.52 30.17 28.78 27.46 33.04 29.65 30.88 33.54 36.66 39.11 34.39 33.95 29.63 31.50 25.31 33.98 29.12 26.03 23.06 25.06 25.86 25.51 26.04 26.26 25.34 24.20 23.77 22.50 22.55 21.00 21.35 21.96 21.43 20.97 21.34 21.66
40.60 41.21 41.54 41.75 41.68 41.86 41.80 41.72 41.25 40.37 40.83 39.90 36.81 32.81 32.07 32.26 26.80 25.08 22.27 26.51 28.25 32.49 32.96 31.63 29.89 33.73 35.83 36.16 33.59 32.44 28.96 28.57 34.54 28.98 26.36 22.94 24.47 25.28 25.03 25.26 24.36 24.61 23.38 22.31 21.31 21.06 20.28 18.82 18.08 17.99 17.78 18.56 20.07 19.68
41.06 41.43 41.69 41.73 41.64 41.65 41.79 41.52 40.64 40.78 38.34 32.40 29.49 27.28 28.45 25.63 27.91 28.87 29.96 32.41 33.26 34.23 33.42 33.97 31.94 31.52 33.79 32.44 33.05 28.31 30.93 31.39 26.70 23.74 20.59 24.09 24.07 24.06 24.23 24.20 22.84 20.19 19.10 18.31 17.34 17.20 16.24 16.14 15.54 15.48 15.40 17.25 16.90 17.01
40.78 41.04 41.37 41.19 41.12 41.20 41.38 41.27 40.82 39.14 34.75 30.38 31.01 25.85 26.93 29.71 30.19 30.77 32.31 31.95 31.87 34.61 35.01 33.61 33.27 33.08 32.70 30.74 32.64 30.99 28.01 22.14 22.48 20.82 21.41 24.62 24.47 23.64 22.64 22.12 20.80 19.32 17.71 17.15 16.74 14.87 13.41 13.83 14.24 13.79 14.45 15.61 15.91 15.19
40.66 40.36 39.51 40.73 41.03 41.15 40.11 38.44 36.72 36.90 32.25 27.84 25.42 26.30 28.75 28.79 27.99 29.18 30.46 29.25 30.05 32.19 35.09 34.03 31.56 29.61 29.50 30.84 27.64 22.43 23.46 21.35 21.05 23.06 23.78 24.24 22.69 22.10 21.73 21.29 20.17 19.29 18.71 17.63 17.12 16.39 14.59 12.84 12.90 13.62 13.97 14.07 14.27 14.73
39.15 36.59 40.01 40.39 40.53 40.39 39.06 36.00 34.85 29.65 27.49 22.82 23.85 24.63 25.88 27.56 27.19 26.52 27.66 26.62 28.49 30.40 31.21 32.13 28.59 26.16 29.90 26.13 21.38 22.92 22.69 22.82 23.26 23.30 24.36 23.37 22.30 20.87 20.88 20.99 19.74 19.28 18.28 17.65 16.31 15.72 15.14 15.34 15.35 15.36 14.34 14.63 15.58 15.21
37.25 40.04 40.41 40.62 39.34 37.32 35.67 34.89 30.27 26.41 20.75 24.01 23.04 22.36 22.46 23.04 24.15 24.51 25.41 26.47 28.08 30.51 31.25 25.96 28.27 22.79 23.54 21.64 20.45 21.28 22.75 24.05 24.46 24.00 23.39 22.25 21.47 20.54 21.48 21.12 19.97 19.58 18.34 16.63 15.68 15.39 15.39 15.32 16.15 16.71 15.18 15.36 15.95 15.81
39.92 40.75 40.48 39.45 38.96 35.50 30.79 29.70 30.67 21.79 22.26 23.30 23.04 23.31 23.37 22.94 23.45 24.22 25.72 26.53 26.27 26.84 27.16 25.28 20.78 18.94 18.54 20.25 20.28 21.45 23.00 24.12 22.29 22.93 22.35 21.50 21.29 19.48 19.37 19.35 19.21 19.01 17.88 18.16 18.61 18.60 17.82 15.36 16.62 17.78 17.89 18.38 17.56 17.82
40.89 40.64 39.60 40.18 38.43 31.94 26.38 26.32 30.49 24.49 22.18 22.72 23.99 22.47 22.43 22.01 22.81 22.98 23.83 24.10 23.72 22.81 18.63 16.95 16.45 17.99 19.58 20.11 22.28 23.12 24.21 25.71 24.09 21.67 21.28 21.80 21.78 20.09 20.22 20.68 20.32 19.13 18.96 17.77 17.98 15.58 18.30 18.11 18.18 18.19 17.81 17.30 17.84 16.40
40.34 39.33 38.81 37.29 33.28 31.85 28.85 26.42 24.57 25.06 23.67 21.90 22.57 23.56 21.10 22.72 21.68 21.41 21.35 22.65 20.65 17.63 16.66 18.51 18.56 19.77 21.17 21.71 22.84 23.32 22.46 24.14 23.18 23.87 23.17 20.88 22.12 21.95 20.82 20.77 20.43 20.77 19.46 19.14 18.62 16.57 16.57 16.97 17.15 17.05 17.38 16.31 16.62 16.89
37.62 38.80 35.50 35.71 30.82 29.16 27.84 29.67 25.97 26.78 24.69 23.69 23.65 23.61 21.61 20.92 20.67 20.39 22.15 19.32 17.41 17.40 19.72 19.62 19.55 19.88 19.17 18.71 19.22 21.20 21.22 21.50 21.48 21.34 21.32 21.36 20.66 20.31 19.96 20.53 20.59 18.69 18.80 18.65 18.62 17.91 17.67 17.68 17.78 17.36 17.17 15.87 15.76 16.36
37.33 36.06 33.37 31.28 26.39 25.85 23.54 31.24 24.89 24.77 20.53 21.02 22.90 18.50 18.85 19.84 20.07 21.98 16.74 18.06 18.14 20.37 20.20 19.27 18.80 19.45 18.04 18.26 17.73 17.19 18.55 19.62 19.66 19.85 19.97 20.15 20.44 20.40 20.19 19.95 20.61 19.32 18.42 18.03 19.41 18.77 17.47 15.25 15.28 17.10 16.39 16.81 16.31 15.35
32.03 26.10 24.64 24.66 26.24 21.91 26.44 23.92 26.17 23.11 22.64 20.53 18.86 14.83 15.50 18.46 19.64 17.45 13.14 15.75 17.98 20.15 19.49 18.06 19.64 18.11 17.87 16.82 16.96 16.66 17.32 19.80 18.87 18.72 20.08 19.96 18.66 18.10 19.42 18.97 19.21 19.21 18.91 19.48 19.15 18.72 18.03 17.23 14.97 17.24 16.35 16.04 15.72 15.25
28.47 19.39 22.63 18.99 22.31 21.09 19.11 18.95 18.41 19.50 16.10 17.23 15.87 15.42 16.51 19.20 14.32 12.13 11.69 14.17 16.63 17.90 17.83 19.02 19.44 19.72 17.78 16.55 17.09 16.70 16.07 20.20 19.14 16.86 17.76 19.61 19.28 19.28 18.44 18.50 17.87 17.73 19.11 19.41 18.63 18.30 17.96 17.54 17.12 16.68 15.74 15.76 13.03 11.69
17.95 15.74 18.41 17.82 19.70 19.52 18.92 16.29 16.43 16.16 16.71 15.00 13.99 15.94 17.70 15.38 10.98 10.18 13.79 15.69 17.06 17.28 17.09 17.72 17.45 16.60 16.11 18.08 16.58 16.96 16.58 18.84 19.66 17.01 15.89 17.62 17.68 18.34 17.27 16.31 16.16 15.77 17.69 17.92 17.61 17.34 17.15 16.68 16.23 12.77 14.79 11.59 10.25 11.19
15.63 14.61 17.78 18.69 20.08 18.59 17.49 18.11 18.51 18.77 14.84 13.93 15.16 12.64 13.31 10.63 10.22 12.17 15.31 17.15 17.70 18.07 18.40 18.94 19.19 18.53 16.45 15.28 15.45 15.96 17.17 17.42 16.67 15.96 15.79 15.47 15.10 15.31 15.71 14.86 12.00 13.99 15.60 16.39 16.87 16.49 16.14 16.35 15.84 15.25 15.13 15.93 14.70 14.28
15.98 16.23 13.48 13.17 13.49 15.22 12.34 13.42 13.91 13.76 14.78 15.84 15.30 11.32 10.97 12.48 10.91 15.05 17.93 17.12 17.73 17.63 16.51 16.08 17.03 17.25 16.26 15.14 15.79 15.51 14.67 14.15 13.54 14.27 14.47 14.22 14.09 13.81 11.88 13.91 12.49 10.40 12.70 14.89 16.20 16.89 16.47 16.35 16.18 15.58 14.56 14.53 13.90 14.85
13.26 14.71 14.17 4.66 8.50 9.59 8.77 10.57 11.79 13.17 13.80 15.28 12.36 8.98 9.27 12.00 13.52 14.90 14.82 16.41 17.51 16.75 14.49 12.60 10.97 12.33 11.51 10.97 11.27 12.85 15.73 15.58 12.04 6.86 5.51 11.62 12.54 12.45 11.67 11.91 12.79 12.80 13.81 15.10 14.73 14.82 13.80 14.56 14.50 14.42 12.72 14.53 14.04 14.44
10.94 15.32 9.39 5.68 4.49 6.33 9.20 10.65 11.42 11.66 12.60 13.26 13.42 11.26 11.24 11.68 12.06 14.77 15.36 16.01 16.15 16.01 15.29 14.26 12.02 13.81 11.83 12.11 9.94 8.35 8.42 9.36 10.23 11.76 11.11 10.68 10.85 10.03 9.91 9.74 9.92 10.54 11.25 12.96 13.42 14.01 11.13 13.47 13.07 13.26 12.38 12.42 13.54 12.37
13.22 13.57 9.20 8.91 6.93 9.94 10.20 9.23 9.18 10.44 11.27 10.59 11.25 11.24 10.02 12.19 13.50 13.94 14.93 15.15 12.74 10.87 11.41 9.85 8.75 10.82 10.06 9.40 11.23 9.20 7.74 7.15 2.73 4.99 7.59 8.83 9.06 9.74 8.78 7.10 8.23 9.30 10.46 10.54 10.65 11.95 12.04 11.58 12.08 9.77 9.07 7.68 5.26 7.82
12.44 8.85 7.64 5.90 6.66 10.26 11.20 12.54 12.40 11.58 11.32 12.13 9.71 9.24 8.75 11.45 9.70 11.43 11.30 11.48 11.12 11.83 10.85 12.48 11.96 10.31 9.39 7.63 5.65 6.00 4.20 6.00 4.86 4.12 2.92 6.27 7.90 5.25 6.66 6.83 6.98 9.40 9.35 8.98 8.95 9.04 7.59 7.16 9.41 7.90 7.67 4.11 3.40 2.70
8.61 9.16 9.06 8.98 8.20 8.01 10.16 10.75 10.46 8.75 10.21 9.77 9.62 10.14 10.87 11.50 8.62 12.24 8.81 11.64 14.76 15.11 12.44 12.39 11.34 8.08 4.69 5.15 5.94 3.94 3.98 4.13 0.89 2.79 -0.89 -2.09 -5.01 -0.24 6.25 7.98 8.53 8.21 6.45 7.35 7.08 6.88 5.40 4.15 5.04 2.67 1.66 0.43 0.04 -0.41

GFSWCAN_sfc_wetblb_117.txt.gz
Wetbulb
41.52 41.66 42.68 43.04 43.57 44.73 45.58 45.60 46.04 46.18 45.16 45.25 45.08 45.05 44.87 44.84 44.93 44.10 42.86 45.30 40.19 34.80 37.86 37.64 37.91 35.00 35.36 35.13 31.24 35.34 33.96 35.32 34.25 29.90 29.47 30.01 28.87 30.81 29.43 31.38 29.53 28.01 27.93 29.12 30.45 27.00 24.51 39.86 38.74 32.71 37.46 42.27 40.07 40.83
40.60 40.92 41.18 42.05 42.77 42.86 44.95 45.62 45.64 45.61 45.02 44.94 44.81 44.82 44.65 44.75 44.86 44.74 41.06 44.66 44.74 38.39 36.69 42.34 41.91 42.05 40.22 39.39 36.11 37.28 34.36 32.12 35.68 32.24 33.46 32.29 29.12 31.54 30.02 25.75 35.16 28.25 31.02 29.31 30.05 30.35 37.33 38.00 36.50 40.39 40.39 39.25 38.77 43.04
39.82 40.13 40.30 41.12 41.96 42.67 43.87 44.11 44.88 45.26 44.73 44.57 44.72 44.89 44.70 44.14 44.36 44.33 43.01 43.23 42.17 38.41 36.58 37.03 36.39 41.83 43.93 42.76 43.50 33.60 36.10 36.73 36.48 39.48 35.51 33.37 27.74 32.49 27.10 27.93 30.75 33.61 37.06 31.93 31.69 34.98 33.80 33.22 34.51 36.63 38.17 37.52 38.47 40.42
39.34 39.52 40.09 40.05 41.15 42.00 42.98 42.89 41.81 45.08 44.60 44.60 44.44 44.39 44.19 44.41 44.81 44.15 41.95 43.92 41.08 38.29 32.11 35.24 42.75 40.36 43.89 44.09 42.83 42.01 40.04 41.34 40.18 38.73 34.61 32.71 29.87 35.52 30.62 32.39 29.95 33.18 34.88 31.56 31.95 34.32 34.08 34.34 33.63 34.62 35.20 35.81 37.27 36.71
39.05 39.17 39.16 39.57 40.26 41.44 41.01 42.83 41.63 42.08 43.05 43.82 44.15 44.20 44.10 44.07 44.39 45.22 45.84 44.57 44.16 37.69 32.12 33.89 40.11 41.76 42.97 42.72 41.54 41.88 40.25 37.81 34.98 32.86 32.16 30.06 34.89 34.14 34.94 33.52 30.63 34.68 30.95 29.14 28.21 33.00 31.84 32.63 34.29 35.33 33.33 33.60 34.26 36.03
39.35 39.00 39.12 39.13 39.76 40.86 40.57 41.38 43.36 42.80 43.25 43.38 43.70 43.82 43.82 43.82 44.20 42.33 34.89 43.24 44.78 43.31 35.25 30.16 40.09 39.33 41.35 42.08 40.52 39.56 39.51 37.19 35.56 33.59 31.52 33.42 37.72 34.47 30.06 28.94 33.81 34.41 34.89 33.65 31.01 34.19 34.92 33.88 35.99 34.36 34.65 34.01 34.56 33.65
39.53 39.15 39.19 39.13 39.54 40.22 40.08 38.85 43.50 43.83 43.23 43.14 43.51 43.45 43.48 43.72 44.12 38.60 37.41 42.41 44.10 43.63 35.94 30.03 32.62 39.17 40.34 40.84 38.98 37.35 38.29 37.77 35.77 34.32 32.35 33.63 35.36 36.41 32.18 28.36 34.10 33.32 33.60 34.20 34.62 34.72 33.08 31.93 30.35 33.41 35.29 36.61 36.09 34.93
39.73 39.60 39.35 39.24 39.27 39.86 38.76 37.20 42.42 43.31 43.06 43.24 43.41 43.03 43.11 43.10 42.46 39.44 43.76 43.51 44.47 39.40 37.77 29.22 31.03 34.92 40.14 33.72 31.80 37.15 34.62 35.91 35.19 34.67 35.85 33.83 36.38 35.95 29.81 34.17 34.18 33.67 33.41 32.59 33.70 34.47 31.64 32.94 33.78 33.09 33.65 34.08 34.15 33.05
39.77 39.72 39.41 39.22 39.48 39.41 37.60 41.40 41.94 41.36 42.34 42.98 42.81 42.54 42.11 39.22 36.85 39.77 41.39 41.00 41.91 37.59 31.39 30.96 29.21 29.29 39.10 35.71 36.91 35.00 35.24 30.42 36.79 32.61 33.23 34.71 32.69 29.14 31.51 31.96 31.12 30.82 30.48 28.97 32.64 33.09 32.24 31.19 31.24 31.66 31.21 30.49 30.53 30.78
39.72 39.44 39.52 39.73 39.84 38.72 38.66 42.01 41.64 42.24 42.37 42.42 41.45 35.05 31.66 38.28 42.90 42.13 39.00 35.26 35.82 36.24 35.68 30.14 36.01 32.07 37.26 35.00 33.99 33.99 34.50 31.53 29.57 32.91 37.08 32.37 31.50 31.99 30.94 30.77 31.10 30.43 30.79 30.26 28.50 27.74 27.01 26.94 27.35 28.64 28.76 28.57 28.24 28.49
39.79 39.10 39.64 39.83 39.88 38.20 40.92 42.07 42.06 41.93 41.97 38.84 35.24 35.00 40.92 43.26 39.96 36.14 30.75 29.33 31.33 28.33 32.94 33.65 34.54 33.60 39.73 32.79 31.82 36.78 33.23 33.84 27.89 32.04 31.09 30.11 29.21 27.01 30.27 29.80 30.24 30.72 30.23 29.09 28.92 27.44 26.09 24.71 24.86 25.85 26.58 26.51 25.96 25.49
39.02 39.21 39.41 39.89 40.15 41.51 42.66 42.26 41.86 40.76 39.19 39.10 39.85 41.26 40.71 36.06 32.32 29.10 28.18 30.43 29.16 27.86 34.50 31.85 33.24 36.18 37.13 39.90 35.01 35.63 30.75 32.16 26.11 36.10 30.31 27.85 25.10 27.72 28.27 27.61 28.40 28.67 27.97 27.19 26.65 25.44 24.73 22.60 21.68 23.54 22.82 21.84 22.12 22.71
39.58 39.99 39.81 40.28 42.04 42.68 42.79 41.98 41.67 42.07 42.41 41.47 37.66 33.76 32.56 31.20 25.18 24.48 23.37 26.34 28.70 34.05 35.92 34.82 31.42 35.94 37.28 37.36 34.84 32.82 27.51 28.35 36.34 30.27 28.39 25.16 25.93 27.17 27.42 27.56 26.39 26.83 25.79 24.48 23.83 23.64 22.65 21.15 20.13 18.93 19.13 20.31 21.12 21.38
39.76 39.99 39.99 41.62 41.86 41.92 41.80 41.76 41.74 42.13 40.02 33.86 30.26 25.85 28.78 26.80 28.97 30.36 30.68 32.50 36.14 37.24 36.19 33.81 32.27 33.88 35.56 32.93 33.77 29.42 31.86 32.10 27.96 26.37 24.10 26.04 26.46 25.98 26.02 26.11 24.75 21.80 20.95 20.65 19.35 19.16 18.20 18.56 17.87 17.96 17.79 19.36 18.89 18.78
40.84 41.62 41.84 41.73 41.37 40.56 40.91 41.70 41.58 42.22 37.64 31.86 30.20 26.86 28.32 32.11 32.69 33.14 35.06 34.56 34.46 37.15 36.04 34.79 35.83 34.22 32.54 31.31 32.51 31.71 28.98 26.38 25.14 23.45 23.37 25.52 25.80 25.34 24.65 24.20 22.96 20.80 19.51 19.78 19.53 17.17 16.05 16.14 17.31 16.87 17.49 18.30 18.56 18.02
41.60 41.30 41.66 41.55 41.27 41.73 41.02 40.82 40.20 40.30 34.95 30.67 28.64 28.46 30.95 30.56 29.17 31.67 32.38 30.87 35.47 35.31 38.03 38.48 31.93 29.78 29.55 31.34 28.90 26.71 25.87 24.42 24.65 25.69 26.40 26.01 24.60 24.43 23.82 23.23 22.10 21.53 21.18 20.30 19.78 19.28 17.81 15.96 16.03 17.12 17.31 17.56 17.04 17.50
40.66 38.78 41.22 41.58 41.53 40.49 39.92 38.58 38.43 32.31 31.15 26.53 26.58 28.93 29.21 29.86 29.88 29.37 31.34 30.26 33.41 33.41 32.26 32.47 28.43 27.13 33.53 28.40 25.85 28.30 25.09 25.35 25.28 25.50 26.02 26.05 24.20 22.86 22.92 22.77 21.73 21.45 20.52 20.03 18.81 18.44 18.23 18.65 18.41 18.74 17.81 17.79 18.81 18.60
39.57 41.76 41.16 40.89 41.30 39.01 36.78 37.01 33.11 29.90 21.94 27.12 26.39 26.10 27.08 27.61 27.98 27.86 28.55 29.88 31.33 32.54 32.56 30.40 32.99 27.73 27.21 24.08 25.07 24.75 25.27 26.84 27.18 25.95 25.06 24.12 23.56 23.32 23.95 22.47 21.78 21.79 20.63 18.92 18.60 19.20 19.63 19.68 20.38 20.13 19.66 19.18 19.69 20.06
40.61 41.32 40.33 40.16 40.25 37.78 33.21 33.01 34.71 25.51 25.60 26.48 26.14 27.10 26.85 26.24 27.14 28.00 28.70 28.99 29.92 31.11 32.26 30.93 26.61 26.70 24.73 24.93 24.33 25.51 26.19 26.15 24.19 24.56 23.76 23.83 23.12 21.78 21.76 21.55 21.64 21.16 20.02 20.74 21.01 20.64 20.57 18.34 19.12 20.38 20.73 20.77 19.52 19.41
40.36 40.19 40.10 38.67 40.05 35.43 28.83 29.50 35.16 28.40 25.35 25.84 26.88 26.15 26.00 26.06 26.73 27.46 27.70 28.29 29.02 28.64 25.52 23.77 22.85 22.46 23.51 23.61 26.19 26.78 27.21 28.36 26.15 23.52 22.73 23.20 23.60 23.27 22.35 22.70 22.06 21.65 21.93 20.89 20.99 18.11 21.46 21.17 20.91 20.36 19.23 19.13 19.44 18.48
39.21 39.85 38.72 39.34 35.99 34.91 31.71 30.15 27.99 28.05 26.58 25.87 26.27 27.54 24.94 27.49 26.53 26.79 26.09 28.61 26.75 23.97 22.45 22.73 21.72 22.17 24.41 25.25 26.53 26.78 25.96 27.46 25.86 26.49 25.79 22.85 24.60 24.54 23.31 23.17 22.98 23.22 21.99 21.43 20.94 20.28 19.35 19.61 19.85 20.12 19.99 19.21 19.22 19.47
38.05 38.61 36.75 37.76 32.21 31.03 30.25 32.75 29.78 30.21 27.75 26.22 26.12 28.28 25.20 24.80 24.92 25.14 27.02 24.85 22.19 21.48 24.34 23.53 22.75 22.58 22.09 21.07 21.75 23.55 23.85 24.47 24.62 24.36 24.01 24.15 23.22 23.07 22.60 23.45 22.93 21.74 21.73 21.55 20.89 20.38 20.17 20.15 20.28 20.14 20.15 19.46 18.78 19.33
38.75 38.39 35.67 32.63 27.68 27.55 24.77 33.12 26.21 27.02 23.47 23.50 25.69 22.97 23.20 23.90 24.71 26.41 21.90 22.11 20.96 23.65 23.40 22.68 22.25 22.92 21.37 21.37 21.16 21.72 22.80 23.57 22.52 22.48 22.87 22.81 23.22 23.38 22.66 22.40 22.79 22.25 21.63 20.95 21.88 21.26 20.16 16.95 18.85 20.31 20.11 20.29 20.20 19.38
36.00 31.58 29.84 28.98 29.31 24.56 28.86 26.14 28.52 26.12 25.25 23.58 22.77 19.02 21.07 23.25 23.85 22.88 19.22 20.52 21.28 22.37 21.78 20.93 22.51 21.11 21.57 21.25 21.32 21.04 22.12 23.47 21.85 21.71 23.64 23.15 21.19 21.18 22.26 21.82 21.76 21.56 20.73 21.26 21.75 21.06 21.00 20.29 16.64 20.14 19.10 19.16 18.57 18.02
28.06 23.23 26.48 23.20 27.58 25.24 23.43 23.41 23.34 23.40 20.73 22.12 20.18 19.88 20.45 22.69 19.82 19.05 18.77 18.61 20.31 21.20 21.21 22.41 22.88 23.34 21.81 20.66 21.14 20.15 20.41 23.63 21.81 19.33 20.89 22.57 22.08 21.87 21.34 20.94 20.02 19.68 20.93 21.42 20.92 20.78 20.22 19.93 19.71 19.30 18.40 18.27 15.96 14.40
23.80 20.28 23.47 23.44 24.29 24.02 24.14 20.51 21.29 21.31 21.52 20.30 20.16 22.25 22.52 21.40 17.08 16.19 19.99 20.75 21.31 21.47 21.74 22.48 22.34 21.77 21.79 22.97 20.95 20.37 20.14 23.17 22.94 19.83 19.29 20.83 20.48 20.65 20.04 19.31 19.36 18.40 19.41 19.96 19.26 18.95 19.76 19.37 18.74 15.32 17.40 14.11 13.03 15.20
20.87 20.07 22.90 24.30 25.95 24.56 23.86 24.42 25.07 23.66 20.00 18.56 20.31 19.07 18.68 15.16 16.28 18.51 22.05 23.50 22.42 23.71 24.55 24.86 24.43 23.54 21.78 20.72 20.62 20.75 21.30 21.35 20.65 19.93 19.97 19.95 19.43 19.21 18.62 17.38 15.42 16.15 17.80 18.10 18.82 18.61 17.81 18.09 18.13 18.01 18.06 18.87 17.70 16.81
21.44 22.31 18.12 20.16 20.54 22.91 19.05 20.93 20.52 19.94 21.54 23.58 22.31 16.70 15.81 17.73 16.96 20.80 22.26 23.82 23.68 23.30 22.99 23.50 23.76 23.15 21.78 20.87 20.44 19.73 18.92 18.24 17.70 18.54 18.74 18.62 18.59 18.00 16.31 17.58 16.47 13.00 16.56 17.33 17.35 18.42 17.94 17.67 17.79 17.64 17.22 17.62 16.79 17.47
19.77 21.33 19.62 10.83 15.48 17.49 17.42 18.76 19.98 20.01 19.76 21.93 20.85 16.74 15.26 17.08 19.38 19.19 20.77 21.82 23.09 21.45 18.81 17.82 17.88 19.21 18.44 18.70 18.87 20.18 19.51 19.32 16.70 10.19 8.51 15.52 16.89 16.18 16.05 15.91 16.58 16.20 16.92 17.26 16.24 16.25 15.75 16.29 16.30 16.54 15.87 16.72 16.25 16.36
16.57 22.03 16.53 11.40 10.62 13.53 16.85 17.91 18.25 17.46 18.96 19.35 18.24 15.56 15.45 15.25 17.26 21.67 20.86 20.91 20.87 20.67 20.90 19.43 18.51 18.39 16.40 16.19 14.93 14.24 16.76 17.38 16.62 16.34 15.36 14.71 14.86 14.27 14.69 14.34 14.35 14.72 15.08 15.43 15.26 16.44 12.90 15.63 15.39 16.13 15.22 14.97 15.56 14.53
20.10 20.14 15.66 15.93 13.65 16.65 15.86 15.60 15.80 16.59 17.60 16.98 19.10 18.70 15.36 14.39 16.08 20.24 20.71 22.39 21.88 19.87 18.41 16.58 17.11 18.19 16.32 15.46 15.80 13.69 12.26 13.05 9.95 10.86 13.09 14.06 13.91 14.40 13.13 12.31 13.53 14.37 14.63 14.14 13.74 14.22 14.27 14.28 14.69 12.52 11.07 10.04 8.42 10.36
19.59 15.31 13.51 10.34 11.81 13.89 15.42 16.64 17.11 17.04 15.85 15.85 13.54 14.76 14.12 16.21 13.71 15.14 17.42 18.80 17.72 17.38 17.52 17.90 16.47 15.92 17.65 16.08 14.19 13.43 12.48 11.77 10.26 9.65 8.76 11.70 12.96 10.28 12.45 12.88 12.79 13.98 12.99 12.39 12.79 13.00 10.74 10.22 12.88 11.75 11.30 7.27 7.06 7.10
15.82 16.56 15.40 13.65 12.37 11.85 14.22 15.12 14.81 12.85 15.07 14.41 14.71 16.39 17.40 17.30 13.30 17.18 17.96 20.59 20.39 20.03 18.51 19.65 18.95 15.47 12.02 11.97 12.00 10.94 10.41 10.10 7.38 6.19 4.34 2.91 1.48 6.19 12.22 13.46 13.49 12.03 10.06 11.24 11.28 10.85 8.00 5.32 8.42 7.03 5.99 4.76 4.67 4.91

GFSWCAN_sfc_wetblb_120.txt.gz
Wetbulb
41.21 41.81 42.98 42.47 42.97 44.86 45.90 46.16 46.21 46.21 46.11 45.74 45.20 45.10 45.49 45.44 44.80 43.63 42.37 45.75 40.56 35.51 36.85 39.02 38.46 35.44 36.07 35.16 31.33 35.34 34.07 35.05 33.25 28.94 28.25 28.68 27.72 29.86 28.61 30.65 29.32 27.91 26.43 26.29 27.37 25.79 23.04 34.57 35.64 29.61 34.58 37.61 37.24 35.39
40.74 41.59 41.96 42.90 42.65 42.30 42.48 45.67 46.02 45.88 45.90 45.68 44.64 45.27 45.34 45.15 44.94 44.70 40.85 44.93 44.98 38.86 36.88 41.86 42.05 42.70 40.78 39.56 35.96 36.60 34.44 33.80 34.82 30.77 32.20 31.43 28.50 30.71 29.07 24.13 34.10 27.36 31.02 29.63 30.18 28.61 34.22 34.15 32.63 34.51 36.28 35.64 35.78 34.60
40.09 40.79 41.40 41.40 42.42 42.50 42.51 42.47 45.00 45.56 45.88 45.19 44.96 45.36 45.32 45.34 44.98 43.99 43.10 44.71 41.97 37.40 36.26 36.64 36.42 41.64 43.19 42.22 43.49 33.71 36.26 37.39 36.93 39.37 34.12 32.36 27.77 32.07 26.34 27.95 29.79 33.10 35.97 30.74 30.24 33.12 32.39 32.71 33.20 33.99 34.48 34.25 36.79 35.96
39.74 40.18 40.54 41.06 41.19 41.99 42.28 42.22 44.35 45.39 45.58 44.54 44.64 44.96 45.03 44.86 44.82 44.29 42.77 44.67 41.79 38.01 31.32 34.82 43.09 40.48 43.72 43.64 41.87 41.35 38.94 40.53 40.19 38.95 33.91 31.74 28.91 35.02 30.07 31.56 30.81 34.06 34.58 30.74 31.10 33.03 33.15 34.23 33.03 33.46 34.04 34.36 34.29 36.89
39.58 39.83 39.97 40.44 40.62 41.40 41.55 42.44 43.42 43.42 44.63 44.80 44.87 44.77 44.89 44.63 44.80 44.71 45.77 45.49 44.43 37.72 31.86 33.13 40.06 42.51 42.73 42.19 40.78 41.13 39.60 37.46 35.81 33.47 31.99 29.28 33.59 33.31 34.32 34.46 32.97 35.37 32.03 28.63 27.08 32.78 31.18 32.39 34.51 33.92 34.61 33.41 33.87 34.19
39.66 39.44 39.71 39.98 40.21 40.54 41.60 42.38 42.63 43.00 44.85 44.55 43.90 44.58 44.65 44.49 44.49 43.01 35.28 43.46 45.23 43.48 35.37 29.45 39.51 39.44 41.37 41.35 40.00 39.02 39.09 37.94 36.44 33.89 32.41 34.09 36.72 33.11 29.07 28.42 33.78 35.21 34.52 34.58 32.66 33.75 34.22 34.11 35.10 33.63 33.86 34.76 34.56 33.49
39.76 39.49 39.32 39.47 39.77 40.11 41.28 41.31 42.68 42.20 43.12 43.16 43.02 43.87 44.15 43.99 44.20 38.62 36.94 41.93 44.53 44.64 35.69 30.22 31.61 38.37 40.83 40.30 39.32 38.52 39.79 38.19 36.51 34.40 32.56 32.80 33.46 35.32 31.79 27.70 35.02 34.55 34.69 34.29 35.61 35.17 32.61 31.85 29.96 33.24 33.90 34.34 36.99 34.63
40.35 39.60 39.66 39.66 39.87 39.67 40.71 40.85 42.14 42.46 42.33 42.82 43.25 43.44 43.51 43.67 43.18 39.13 44.03 44.11 45.37 39.69 37.61 29.22 30.29 34.27 40.25 35.53 33.90 39.14 35.52 36.21 35.75 33.90 35.12 32.75 34.76 34.69 28.82 33.42 34.66 34.70 33.94 33.96 33.95 35.64 33.88 34.67 34.54 33.81 33.28 32.54 32.64 31.41
40.45 40.36 40.06 39.89 39.91 39.91 40.55 39.27 41.68 43.32 42.75 42.88 43.15 43.21 41.49 39.40 36.83 39.15 42.56 44.43 45.00 38.83 30.95 31.32 27.66 28.73 39.01 35.84 36.36 35.01 35.72 30.45 36.07 32.26 31.99 33.77 31.27 28.36 33.22 32.91 32.68 32.09 31.60 30.98 32.74 34.62 32.50 31.12 30.42 30.97 30.69 29.19 28.67 28.52
40.43 40.11 40.19 40.08 40.00 39.97 39.57 38.69 41.06 43.41 42.49 42.69 40.91 34.86 31.49 37.12 42.40 41.89 38.93 35.74 35.17 36.05 35.32 29.90 34.97 30.41 36.43 35.28 33.39 33.95 34.08 30.43 28.53 31.54 35.76 31.59 29.97 32.63 32.63 32.11 32.09 31.96 31.69 30.95 28.02 26.38 26.46 26.08 26.53 27.43 28.01 27.49 26.70 26.01
40.50 40.37 40.11 39.78 39.38 39.62 39.04 41.21 42.39 42.16 41.96 38.21 34.83 34.42 40.90 43.22 39.55 35.75 30.52 29.54 30.95 28.00 32.70 32.74 32.94 32.32 39.68 32.51 32.38 35.96 31.91 32.51 27.20 31.39 30.58 29.57 28.48 27.99 31.06 30.07 31.19 31.28 30.82 29.02 29.16 27.47 26.16 24.10 23.22 24.71 24.48 24.19 23.93 23.52
40.06 39.83 40.06 39.81 39.58 39.48 39.20 41.07 41.58 39.91 38.98 39.27 40.14 41.40 40.36 35.74 32.67 28.88 27.18 29.56 28.52 26.04 33.52 31.99 33.74 35.87 37.26 39.71 34.67 35.29 30.53 31.52 24.95 35.79 30.45 26.51 25.39 28.53 28.59 28.26 28.69 28.71 28.12 27.21 26.57 24.74 23.74 21.65 21.04 22.18 21.51 20.77 20.81 21.93
40.08 40.01 39.73 39.82 39.87 39.44 39.80 41.24 41.74 42.53 42.60 42.39 37.19 33.00 31.91 31.14 24.33 22.98 21.53 25.49 27.23 33.32 35.57 35.29 32.23 35.65 37.62 37.94 35.28 33.48 27.83 27.31 35.66 30.30 26.85 24.49 26.07 27.52 27.81 27.52 26.24 26.59 25.59 24.20 22.95 22.68 21.76 20.57 19.59 18.94 18.86 20.12 20.90 20.46
39.98 40.06 40.12 40.38 39.91 38.97 41.60 41.83 42.42 42.47 39.64 33.41 30.15 24.54 26.63 25.00 27.10 28.59 30.42 31.24 36.60 37.90 36.93 35.90 33.02 33.40 36.12 33.12 32.99 27.33 31.26 31.90 27.25 25.15 22.65 25.39 26.31 26.41 26.53 26.12 24.07 20.76 20.14 20.61 19.15 18.73 17.88 18.75 18.24 18.33 18.35 19.71 18.96 18.46
40.29 40.05 40.26 38.89 41.11 41.64 41.46 42.08 42.40 42.61 38.07 32.28 30.71 25.04 27.60 32.47 33.29 34.03 36.83 35.95 36.96 39.37 37.07 34.94 34.23 34.03 32.03 31.06 31.97 30.78 28.21 25.85 25.51 21.91 24.34 26.14 26.87 26.02 24.94 24.31 22.95 21.03 20.79 20.64 19.88 17.40 16.12 16.31 18.05 17.22 17.93 18.38 18.33 18.67
40.15 38.92 39.89 41.71 41.22 41.94 41.80 42.05 41.79 40.92 35.30 31.22 29.46 27.27 31.94 31.31 30.43 32.76 32.58 32.40 35.94 37.00 38.55 37.00 32.45 29.45 29.07 30.91 28.36 26.82 26.00 23.62 24.05 25.12 25.97 26.15 25.06 24.37 23.85 23.16 22.18 21.89 22.02 20.78 20.04 19.87 18.21 17.17 17.03 17.81 17.85 18.46 17.26 17.46
39.97 37.64 40.45 41.21 41.18 41.19 41.51 40.12 38.03 33.35 31.07 27.89 28.85 29.93 29.56 30.91 29.49 28.92 31.54 30.71 33.37 33.47 32.16 32.95 27.59 27.69 32.73 28.57 26.53 26.93 23.84 24.84 25.92 26.15 26.61 25.72 23.98 23.09 23.50 22.72 21.89 22.43 21.14 20.76 19.56 19.05 18.62 19.45 19.63 19.62 18.29 18.24 19.20 19.03
38.99 40.83 41.17 40.68 40.95 39.98 39.31 38.56 34.30 31.15 25.81 28.80 27.57 27.36 28.54 29.44 29.30 29.30 29.86 31.07 31.50 32.77 32.60 30.40 33.44 27.91 27.17 25.47 24.38 24.93 26.09 27.41 27.12 25.61 24.38 24.07 24.05 23.81 24.28 22.50 21.93 22.53 20.81 19.23 19.49 19.94 20.57 20.23 21.38 20.89 21.03 21.06 20.06 21.09
39.75 39.80 40.92 41.09 40.65 38.15 33.65 33.78 35.10 26.99 27.09 27.36 27.00 27.90 27.96 27.64 29.19 29.70 29.69 30.15 31.67 32.73 31.92 30.99 27.73 27.25 24.72 26.05 25.83 26.22 26.82 26.12 24.16 24.24 23.81 23.98 23.59 22.43 22.34 22.41 22.48 21.66 20.34 20.44 20.67 20.26 20.44 19.15 20.09 20.53 20.73 21.01 19.88 19.24
40.43 40.30 39.84 40.28 41.02 35.41 30.35 30.67 35.98 29.04 27.02 27.09 28.05 27.15 27.18 26.98 27.67 29.20 29.15 29.79 30.20 30.19 27.32 25.57 23.92 24.13 25.16 25.69 28.28 28.19 28.57 28.07 25.87 23.04 22.32 22.93 23.57 23.97 22.65 23.11 22.10 22.39 22.69 21.94 21.44 19.24 22.09 21.71 21.06 20.17 19.10 19.08 19.33 18.60
39.60 39.10 40.05 40.86 37.35 35.81 32.37 30.79 29.01 29.16 27.66 26.89 27.58 28.17 25.46 27.88 27.93 27.60 26.93 29.44 27.81 25.35 22.94 23.76 22.69 23.76 25.73 26.49 27.80 27.55 25.98 27.94 24.74 26.51 24.18 22.67 25.07 24.45 23.72 23.54 23.58 23.15 22.17 21.81 21.77 20.79 20.82 19.82 20.05 20.45 20.46 19.67 20.26 19.14
38.16 38.94 39.03 38.24 33.18 32.42 30.82 33.35 30.41 30.99 28.57 27.02 26.79 28.16 26.00 25.55 25.73 25.90 28.11 26.00 23.29 23.36 25.79 24.09 23.21 23.11 22.53 21.78 23.16 24.97 25.55 25.93 25.91 25.28 25.24 25.14 23.16 23.29 22.61 23.40 23.30 21.76 21.50 21.54 21.31 20.70 20.39 20.06 19.69 20.91 20.68 20.10 19.85 18.18
39.17 39.01 35.87 33.70 29.23 28.64 26.12 34.10 27.41 27.98 24.03 25.06 26.46 23.78 24.04 24.95 25.93 27.60 23.19 23.46 22.56 25.15 25.84 24.33 23.88 23.92 21.80 22.36 22.90 23.46 25.05 24.79 23.62 23.61 23.63 23.37 23.26 23.86 22.90 22.67 23.01 22.16 21.31 20.50 21.62 20.90 19.83 16.59 19.16 19.76 20.28 20.34 20.22 19.33
37.48 32.71 31.30 30.08 29.68 25.75 29.03 27.46 29.44 26.93 26.42 24.24 23.93 21.03 22.93 24.56 25.34 23.60 21.66 22.90 22.55 23.76 22.13 22.12 22.88 21.49 22.27 22.54 21.89 21.93 23.53 23.85 22.81 23.42 24.37 22.95 21.22 20.94 22.03 21.54 21.50 21.24 20.97 21.62 21.19 20.86 20.28 20.34 16.25 20.27 18.88 18.77 17.89 17.67
30.04 26.80 28.27 24.31 29.11 25.62 24.25 24.25 24.62 24.49 22.31 23.86 22.14 22.07 22.40 23.97 21.04 20.90 20.85 20.82 20.90 22.20 21.71 23.56 23.67 23.61 22.53 21.72 21.55 20.83 21.26 24.47 22.27 20.07 21.98 23.35 22.27 21.60 20.98 20.77 20.10 19.97 20.99 19.91 19.55 20.41 19.86 19.36 19.52 18.55 17.67 17.99 16.04 16.02
25.76 24.47 23.54 26.62 26.03 25.32 25.13 22.37 22.96 23.29 23.35 22.40 22.81 24.63 24.30 22.64 19.40 19.49 22.36 22.02 22.16 22.85 23.23 23.85 23.69 23.28 22.48 23.37 20.87 20.32 20.77 23.99 23.62 20.11 19.91 21.30 20.87 20.56 19.90 19.66 19.32 16.84 19.61 19.50 18.75 18.06 18.63 19.69 18.44 17.14 17.29 15.51 10.20 13.89
22.90 22.90 25.12 27.07 28.36 27.47 25.65 26.64 27.71 25.31 22.16 21.23 22.41 21.13 20.82 17.23 18.86 20.70 24.12 25.13 23.31 25.16 26.04 26.42 25.85 24.69 23.00 21.65 21.81 21.78 22.13 21.82 21.85 20.43 20.64 20.36 19.69 19.32 18.26 16.53 14.87 15.00 17.81 17.91 17.62 18.16 17.04 17.23 17.52 18.27 18.26 18.68 17.34 16.65
24.45 25.24 20.44 22.92 23.92 25.95 22.91 24.09 22.73 22.52 24.05 26.23 24.66 19.46 18.68 19.96 19.68 22.67 24.16 26.58 26.85 25.89 25.45 25.57 25.80 25.07 23.34 21.74 21.36 20.53 19.70 19.10 19.03 19.65 19.21 19.14 18.91 17.87 17.28 17.56 16.21 15.00 16.20 17.41 16.57 17.76 17.16 16.83 16.84 17.95 17.26 16.96 15.78 16.92
22.77 24.40 22.20 15.54 19.90 21.46 22.37 22.56 24.02 23.10 22.09 24.16 23.15 20.55 18.79 18.98 21.94 23.18 23.78 24.67 25.80 24.30 21.31 20.16 20.15 22.11 21.70 21.52 21.77 20.91 20.37 20.14 17.74 13.86 13.06 15.88 15.22 14.42 16.60 16.02 16.59 16.07 16.77 17.32 15.81 14.98 14.72 14.54 14.44 14.91 15.29 15.59 15.67 16.28
20.04 24.78 20.36 15.78 14.84 17.64 20.12 20.54 21.21 20.51 20.97 21.06 20.16 17.49 16.51 16.90 19.67 24.23 23.65 22.73 21.64 21.39 21.54 21.10 20.15 19.46 17.37 16.82 16.08 16.74 18.33 18.58 17.39 17.14 15.51 14.89 14.06 14.64 14.68 14.44 14.57 14.80 15.33 15.50 15.32 15.57 13.51 14.53 15.57 15.42 14.53 14.68 14.19 13.73
22.77 22.65 19.78 19.58 17.39 19.25 18.70 18.79 19.13 19.56 19.69 18.88 20.52 20.18 15.93 14.84 18.09 22.66 22.53 23.44 24.10 23.11 20.78 18.90 19.03 20.09 18.21 18.34 16.53 13.92 12.37 14.49 12.53 13.06 15.03 14.89 14.59 14.67 13.42 12.64 13.70 14.47 14.81 14.12 13.55 13.82 13.02 13.46 14.23 13.48 12.46 10.76 9.56 9.33
21.30 19.88 16.51 14.16 15.69 16.40 17.32 17.70 17.47 18.17 16.95 16.72 16.59 16.74 15.39 15.84 13.17 15.95 19.77 23.51 20.91 19.38 19.13 19.67 19.01 17.90 20.06 17.75 16.26 15.18 14.15 12.78 11.22 11.15 12.07 13.30 13.85 12.65 12.96 12.98 13.34 14.02 12.93 12.67 12.61 12.64 12.39 12.10 12.23 11.11 11.20 10.00 7.89 6.68
18.70 19.15 18.89 17.02 13.82 12.75 16.00 16.82 16.18 15.70 17.02 16.93 16.53 15.99 17.13 18.31 15.02 18.19 20.88 22.74 21.77 21.40 20.25 21.12 21.41 18.37 15.33 15.10 14.18 13.01 12.35 10.97 7.98 7.94 5.66 4.58 2.93 7.73 11.49 13.72 13.30 12.05 11.19 11.57 11.37 11.04 10.31 9.85 9.53 8.38 7.82 5.54 5.63 5.20

GFSWCAN_sfc_wetblb_123.txt.gz
Wetbulb
41.01 41.39 41.56 42.84 43.24 45.15 46.47 46.35 46.35 46.45 46.19 46.03 45.58 45.46 45.65 45.98 45.31 41.29 37.95 40.99 36.25 31.00 32.24 36.86 37.30 32.23 31.72 30.38 25.40 30.84 29.57 30.38 27.20 21.82 22.72 21.36 22.40 26.23 25.64 28.57 27.35 24.75 23.71 20.82 25.48 22.90 17.41 31.70 31.45 25.78 30.79 34.92 34.96 33.03
40.69 41.10 41.67 42.58 42.35 42.81 43.77 46.47 46.49 46.21 46.14 45.96 45.39 45.15 44.99 45.70 45.73 44.13 36.49 41.94 42.30 34.18 32.95 38.13 38.27 38.98 37.67 36.01 31.19 30.96 29.92 30.56 31.43 25.11 28.87 26.39 23.44 23.09 24.55 18.26 29.98 24.99 27.56 24.61 26.72 26.38 33.23 32.67 31.04 33.50 34.43 33.47 34.07 34.51
40.05 40.67 41.54 41.92 42.53 42.12 41.89 42.72 45.57 46.05 46.00 46.00 45.60 45.47 44.90 45.70 44.96 43.13 37.84 40.12 38.20 32.75 31.82 32.17 32.49 37.94 41.16 38.73 38.81 28.95 30.89 35.09 32.14 33.76 25.56 25.17 20.85 24.62 18.89 21.12 23.50 30.67 33.43 26.77 28.14 30.46 30.95 31.17 32.39 33.00 34.82 33.38 34.75 36.09
39.74 40.15 40.84 41.99 42.65 42.07 42.31 41.50 41.44 45.15 45.64 45.66 45.61 45.16 45.35 45.46 44.90 43.90 37.74 40.10 37.99 33.84 22.65 29.70 40.72 37.16 41.16 39.61 37.85 37.06 34.89 36.00 35.15 33.55 26.35 24.17 23.18 29.81 22.39 26.49 21.66 27.90 28.60 25.27 27.46 30.98 31.62 32.51 31.70 32.21 33.68 34.16 33.42 35.42
39.65 39.94 40.43 40.98 41.60 42.49 42.51 41.68 40.46 42.27 45.26 45.73 45.28 45.20 45.53 45.54 44.77 41.79 40.02 40.51 41.27 33.71 27.64 29.04 36.24 39.07 40.88 39.23 37.52 36.69 35.01 32.53 29.56 27.46 24.18 23.08 27.77 27.61 28.26 27.35 20.84 30.83 24.25 20.26 18.55 30.31 29.97 31.09 33.29 32.33 31.99 34.09 33.26 32.99
39.80 39.74 40.22 40.45 40.70 41.49 42.04 42.34 41.45 41.70 44.89 45.22 44.68 44.24 44.99 44.89 44.47 38.27 29.94 39.10 41.81 39.50 28.90 22.51 34.88 36.02 38.82 38.29 36.32 35.35 34.55 32.29 30.73 28.40 25.56 29.09 32.62 27.70 20.99 22.92 31.23 33.20 32.66 30.79 27.81 32.81 33.35 33.14 32.33 32.35 32.12 32.37 34.95 33.47
40.55 39.85 39.87 39.91 40.14 40.54 41.68 41.56 42.98 43.17 43.58 45.03 44.46 44.64 44.59 44.38 40.38 34.31 32.35 37.58 43.26 39.83 27.32 22.15 25.41 34.58 38.71 37.16 34.81 34.18 34.20 33.71 31.52 29.21 26.98 27.56 28.41 29.78 23.96 23.01 31.85 33.77 33.83 33.72 34.04 32.64 28.31 29.08 24.35 30.08 32.05 33.00 34.14 32.86
40.62 40.04 39.81 39.75 40.15 40.31 41.32 41.71 42.56 43.14 44.60 43.69 43.51 43.48 43.85 43.99 42.31 38.03 38.87 43.64 42.28 35.44 32.40 20.29 23.98 30.61 36.80 28.61 28.02 33.83 30.43 32.10 31.07 28.63 28.90 27.68 29.66 28.68 23.73 31.25 33.49 34.01 33.94 34.11 32.82 34.66 31.77 30.95 31.04 30.64 30.18 30.29 29.37 28.71
40.52 40.28 40.44 39.98 39.86 40.44 40.95 41.65 42.70 43.13 43.94 43.19 42.87 42.68 40.50 37.83 35.04 38.00 43.66 43.30 40.38 34.39 23.01 23.13 20.15 19.42 35.09 29.71 32.52 30.44 31.31 26.86 31.12 26.69 27.24 28.26 26.27 23.96 30.33 31.43 29.87 30.40 29.93 28.67 31.44 29.83 29.39 27.61 27.69 28.31 27.23 26.45 25.46 25.12
40.43 40.37 40.39 40.17 40.18 40.23 40.68 41.52 42.92 43.08 43.12 42.51 38.52 33.82 29.62 34.44 43.32 42.08 37.62 32.14 32.19 28.95 29.87 24.51 28.47 25.10 34.69 29.26 23.59 27.17 27.73 24.70 20.10 28.26 32.09 26.12 25.06 30.34 30.56 30.25 30.40 30.26 28.62 28.27 25.14 22.54 23.15 22.21 22.92 24.72 23.62 23.49 23.61 23.25
40.31 40.22 40.41 39.58 39.68 39.86 40.26 40.76 42.81 43.47 42.27 37.35 31.54 31.78 36.20 43.11 36.46 34.16 26.50 23.66 22.41 24.12 27.89 28.03 27.83 27.27 36.82 26.16 24.65 27.59 24.09 25.72 23.06 27.18 27.59 27.10 25.37 27.69 29.72 29.13 29.30 28.19 27.11 25.79 25.13 22.74 21.52 20.66 20.51 21.43 21.12 21.31 22.16 21.27
40.06 40.12 39.89 39.72 39.56 40.11 39.67 40.28 42.40 37.55 35.51 36.74 37.37 39.09 36.94 33.32 28.60 22.93 21.25 23.20 24.50 22.77 26.99 24.87 26.22 29.50 34.04 36.63 27.22 27.78 26.43 25.97 20.94 31.59 28.50 22.23 24.67 27.16 26.90 25.63 24.98 24.83 24.74 23.28 22.94 21.65 20.45 19.53 19.36 19.90 19.67 19.07 20.72 19.48
40.39 40.66 39.86 39.67 39.83 39.78 39.91 41.58 40.23 40.96 41.87 38.90 35.73 31.63 29.10 24.89 13.41 16.00 13.61 20.49 18.44 26.00 27.72 27.87 25.83 30.97 31.51 33.74 27.37 24.95 23.39 19.74 30.12 22.13 20.48 21.01 25.45 26.07 25.12 23.95 22.38 22.99 22.15 20.89 19.79 19.90 20.19 18.76 18.42 18.24 17.91 18.63 19.08 18.84
40.48 40.66 40.09 39.97 39.44 39.32 41.46 40.93 40.62 41.73 37.83 31.55 24.65 20.89 19.98 15.45 20.04 22.15 22.45 23.48 27.44 28.56 32.07 31.21 27.84 28.29 28.05 25.56 27.73 25.17 24.34 25.18 23.51 23.04 18.75 23.35 24.57 24.51 24.81 23.60 20.95 19.28 20.19 18.57 17.26 17.12 16.64 18.21 16.87 16.87 16.13 18.45 17.85 17.35
40.32 40.21 39.94 39.71 39.44 39.14 40.09 41.47 42.41 40.50 33.63 26.25 26.00 14.06 19.31 25.74 28.06 28.87 28.88 30.55 32.49 32.92 33.77 28.88 29.01 29.95 25.62 22.90 28.55 26.54 18.65 20.56 23.15 19.27 21.02 23.69 24.91 24.70 23.87 22.86 20.48 19.63 17.44 15.28 11.10 8.99 8.37 9.76 13.69 11.10 12.48 12.94 15.47 13.77
40.30 39.80 38.11 39.96 39.59 39.78 40.46 41.33 40.08 37.15 30.07 26.76 26.42 20.82 27.89 27.91 27.11 31.45 29.59 31.06 32.28 32.73 31.96 31.07 27.80 26.59 22.30 24.40 24.45 24.05 21.50 20.05 20.95 21.37 22.51 23.76 22.90 22.72 21.22 19.52 17.47 14.36 15.90 10.96 10.78 14.18 9.73 7.51 6.80 9.36 8.10 9.21 7.51 7.87
38.40 36.33 39.18 39.63 39.99 40.26 41.50 37.89 34.75 31.01 28.35 27.33 23.23 25.85 27.74 28.80 27.39 27.77 29.66 29.37 29.34 29.11 26.56 29.56 24.83 24.03 27.70 23.87 23.41 23.01 20.47 21.03 22.06 22.63 23.21 20.76 19.16 18.55 15.48 16.63 15.36 17.71 12.79 11.79 10.38 10.94 10.03 12.84 10.87 11.70 7.76 7.40 8.57 8.57
36.78 40.22 41.54 41.95 41.17 39.91 37.11 35.79 29.81 28.07 25.55 26.70 25.90 25.89 26.77 26.63 27.73 27.70 28.84 29.44 30.02 30.74 28.75 27.99 28.94 26.55 20.99 20.61 21.22 22.31 24.00 23.54 22.34 20.41 19.95 20.60 19.80 19.96 20.57 16.80 17.62 18.77 13.10 11.99 14.61 14.06 12.51 14.24 17.83 18.13 17.15 17.74 13.58 15.05
39.17 40.05 40.86 41.34 39.84 35.94 30.88 31.22 32.30 24.96 26.11 26.41 24.03 23.63 25.88 23.84 26.05 24.98 26.80 27.45 29.24 28.09 27.40 28.05 26.21 23.32 19.13 23.93 22.83 23.24 22.15 20.24 20.05 19.49 18.99 18.84 19.53 17.62 16.14 16.52 16.68 13.15 12.70 12.54 14.89 14.15 12.37 11.59 12.87 13.23 14.63 17.28 12.67 10.43
40.69 40.63 40.71 40.56 40.91 33.03 28.87 28.16 33.77 28.04 25.18 25.48 26.53 25.84 25.81 24.79 26.44 27.78 28.07 28.56 29.01 28.54 25.21 21.65 17.97 22.12 22.42 23.15 24.74 24.93 25.46 23.75 21.32 18.86 17.77 17.89 18.79 19.23 17.05 18.90 15.05 17.37 17.88 16.07 14.10 14.68 20.87 17.33 13.06 13.97 11.98 10.91 11.94 8.91
38.76 38.91 40.02 38.89 34.50 33.72 30.22 29.31 27.70 27.87 27.51 26.28 25.63 25.90 22.68 25.25 25.92 26.27 25.50 27.24 23.06 19.43 17.79 17.97 18.60 19.31 21.35 22.47 24.87 24.36 24.52 24.60 21.33 22.99 20.20 19.60 21.97 18.89 16.24 17.15 20.23 19.94 17.75 16.54 18.47 14.55 13.17 10.47 11.26 16.23 10.89 6.94 12.03 7.35
36.36 39.54 36.24 36.45 31.60 31.07 29.44 30.92 28.20 28.91 27.40 25.14 25.33 27.26 23.75 22.08 23.48 23.58 25.58 20.98 16.12 15.94 19.93 16.39 15.99 17.14 17.00 18.03 20.91 22.02 19.14 20.58 21.32 22.58 20.40 19.63 16.19 19.17 13.67 15.12 17.31 14.16 12.90 14.12 16.50 15.29 11.52 10.65 11.55 15.64 10.53 11.36 11.67 5.81
38.39 37.70 32.88 31.97 27.31 25.88 24.27 31.74 24.61 26.18 20.60 22.45 25.59 22.91 22.55 22.88 22.90 24.25 17.58 18.84 15.26 20.49 22.55 19.97 20.63 19.11 17.49 13.51 15.25 15.04 15.44 18.12 16.69 16.28 16.42 13.72 13.60 13.05 14.16 14.69 14.49 18.07 14.39 11.19 17.36 16.31 10.47 12.13 10.42 7.61 13.40 13.35 15.99 12.86
36.22 29.46 29.00 28.43 27.44 22.55 26.24 25.27 28.65 26.27 24.76 21.32 22.98 21.11 21.89 22.67 21.81 17.64 18.72 16.09 14.22 20.62 18.33 15.96 17.99 15.96 15.16 17.44 14.46 14.17 14.33 16.72 15.99 18.93 16.23 15.39 13.24 11.05 14.12 12.75 12.23 10.71 11.98 14.12 13.31 12.21 10.11 8.23 8.23 15.61 9.65 11.44 5.33 9.62
23.60 21.89 24.63 20.48 25.99 20.73 23.03 23.17 22.90 23.31 20.85 22.37 19.35 20.30 15.85 19.99 13.32 14.73 16.44 14.37 17.12 18.40 16.77 19.73 18.45 17.91 16.31 17.31 10.77 11.20 13.94 19.47 14.93 13.04 13.94 14.03 11.37 11.53 11.21 12.82 12.06 10.49 12.10 9.12 6.57 7.87 13.06 4.14 6.18 4.53 5.15 2.93 4.87 5.59
21.97 18.31 18.53 22.25 21.79 23.96 23.84 21.54 21.55 21.81 21.80 20.67 20.88 19.47 17.72 15.54 15.34 14.42 17.61 15.24 17.52 18.12 17.87 18.66 17.98 21.64 16.72 17.53 14.32 12.30 12.45 17.93 18.36 12.94 10.42 14.07 12.65 11.38 13.69 14.71 11.49 8.22 10.14 5.60 4.36 4.66 5.22 12.55 10.34 7.01 3.21 6.01 1.81 -0.17
16.01 17.42 22.60 25.43 25.16 26.29 21.69 22.58 25.84 22.10 20.16 19.88 17.84 12.94 16.16 10.77 9.12 14.86 19.07 18.45 18.92 19.42 19.29 21.56 20.22 19.05 18.11 17.72 17.78 16.05 16.10 15.70 17.12 14.66 14.71 14.99 14.12 13.15 8.46 6.42 5.01 4.68 7.82 5.42 2.91 3.44 2.67 2.28 2.97 6.14 8.98 13.57 4.00 1.17
22.46 21.56 11.49 15.54 18.89 22.55 16.29 21.27 14.78 14.17 19.54 23.22 21.63 14.87 13.29 9.33 11.35 17.11 18.09 20.97 21.99 22.16 22.31 21.30 21.88 21.07 18.86 17.34 16.71 14.97 11.75 11.04 12.88 13.46 13.95 12.79 10.14 6.43 6.16 5.43 5.30 11.35 4.17 2.42 0.95 3.33 1.46 1.91 3.76 10.19 6.53 5.21 4.96 0.74
17.30 21.21 18.63 9.53 12.74 15.67 15.42 15.61 17.96 18.50 17.98 17.99 18.25 13.32 9.95 14.46 17.21 20.59 20.21 20.11 21.82 20.66 16.77 16.31 16.53 18.06 17.15 15.33 14.24 12.18 9.81 7.92 7.18 3.35 2.85 6.19 3.23 4.53 3.25 2.35 2.98 1.57 1.32 8.11 10.91 4.90 2.40 0.33 0.10 -0.14 -0.29 0.85 0.67 -2.24
18.40 22.64 16.22 9.17 6.50 9.36 12.80 15.64 15.91 15.49 15.99 15.31 15.04 14.05 12.81 11.24 14.09 19.67 19.79 19.44 18.98 17.60 16.03 15.35 14.01 14.09 12.66 13.84 14.26 10.50 10.62 8.27 8.30 3.75 0.68 2.47 4.20 2.35 -0.54 -0.80 0.11 -0.41 -0.20 -0.73 -0.64 3.11 11.06 1.47 8.52 6.56 4.35 -2.18 -2.65 -0.90
20.74 19.45 18.11 14.93 10.32 13.70 14.46 14.37 11.85 12.68 11.42 11.00 12.14 14.71 10.57 9.59 13.18 18.91 18.06 16.46 17.76 18.69 16.67 14.27 12.96 12.26 10.61 8.82 6.85 3.83 -0.58 0.32 0.16 1.23 6.21 5.34 3.51 2.25 -2.30 -2.01 -1.68 -0.38 0.68 -1.39 -2.35 -2.17 -3.57 -1.61 0.67 2.86 -2.88 -6.63 -6.86 -7.16
17.82 18.04 11.69 10.29 10.14 11.55 11.86 10.22 9.24 9.49 8.39 7.52 11.18 10.50 9.55 6.82 5.80 8.59 14.12 17.57 21.22 17.83 15.11 15.66 15.30 14.37 13.01 11.70 8.18 5.72 7.93 5.69 1.12 -1.89 0.53 2.82 3.37 -2.00 -1.17 -0.59 -1.08 -1.59 -2.46 -2.99 -3.41 -4.10 -4.38 -1.81 -3.12 -2.41 0.16 -5.46 -8.51 -9.59
15.33 15.11 15.84 11.35 6.13 6.05 8.76 10.07 11.19 10.51 11.32 10.59 11.82 9.39 10.04 10.23 9.73 11.14 12.88 16.31 19.42 17.87 17.16 17.24 15.80 13.25 11.87 10.62 9.41 7.83 4.59 3.12 1.59 5.93 2.99 0.87 -2.94 -0.40 -2.95 -1.24 -2.79 -3.16 -2.90 -3.39 -4.75 -5.46 -4.57 -5.55 -8.22 -9.44 -10.55 -11.49 -12.24 -13.39

GFSWCAN_sfc_wetblb_126.txt.gz
Wetbulb
40.87 41.79 43.44 44.31 44.72 45.92 46.31 46.26 45.89 46.10 46.17 46.01 46.03 46.08 46.31 45.91 45.38 39.59 36.57 40.12 36.17 30.36 32.12 36.19 36.22 30.73 30.40 28.23 24.91 28.21 26.79 28.21 25.43 20.30 21.82 19.82 21.79 25.05 23.81 26.96 26.29 23.33 22.66 18.01 21.80 19.04 15.30 30.43 30.09 23.71 28.39 32.08 33.67 33.50
41.03 41.03 41.70 43.02 43.80 43.72 45.49 46.14 46.12 45.79 45.82 45.84 45.86 45.91 46.12 45.93 45.66 41.73 35.19 40.30 40.82 33.28 32.12 36.74 37.13 37.64 36.20 34.45 29.27 28.72 28.19 28.49 28.87 24.50 25.61 25.52 23.68 21.34 23.34 17.49 27.69 17.78 23.02 20.53 22.30 22.56 31.89 31.94 29.90 32.19 33.67 31.72 32.81 34.12
40.10 40.85 41.44 42.78 43.01 43.65 44.16 45.74 45.90 45.80 45.94 45.80 45.47 45.65 45.93 46.00 45.11 41.22 36.48 37.85 36.66 30.16 29.18 30.74 30.10 35.11 39.07 37.73 36.47 27.64 29.15 33.52 30.81 31.10 24.97 23.87 20.07 22.85 17.45 19.70 20.38 26.79 32.07 24.07 26.74 29.75 30.37 31.11 32.33 32.23 33.41 31.55 33.61 35.06
39.94 40.24 41.45 42.07 42.77 42.55 43.08 43.92 45.66 45.89 45.68 45.65 45.44 45.25 45.30 45.79 45.25 41.66 36.12 38.07 36.05 30.68 20.90 27.65 38.35 34.73 39.04 37.76 36.08 35.58 33.99 34.06 33.82 31.83 24.56 22.23 22.75 28.13 21.45 24.46 20.23 23.34 25.98 22.85 26.18 30.03 31.21 30.99 31.09 30.70 32.31 33.89 32.79 34.46
39.74 40.04 40.55 41.80 42.34 42.36 42.33 42.15 43.20 45.67 45.97 45.80 45.52 45.40 45.35 45.56 44.90 39.79 37.45 38.02 40.14 31.33 25.24 27.58 33.66 36.91 38.64 37.14 35.60 35.10 33.41 30.88 28.03 25.41 22.13 22.35 26.84 26.28 26.24 25.61 18.78 27.79 22.83 20.31 19.51 29.57 28.40 30.68 31.72 31.60 31.67 31.83 33.67 32.07
39.62 39.88 40.29 41.08 42.19 42.38 42.18 41.95 41.54 43.20 44.91 45.61 45.43 45.44 45.21 45.09 42.73 36.47 28.16 35.81 39.66 37.61 27.59 20.57 32.53 33.92 36.56 36.59 34.87 33.22 32.87 30.30 28.46 26.60 23.74 27.37 30.63 26.15 19.49 21.52 28.30 31.47 33.44 29.78 26.61 33.11 33.00 31.69 31.44 31.46 29.93 33.16 33.79 31.45
40.21 39.79 40.20 40.56 41.20 42.00 42.39 41.43 42.08 43.17 45.20 45.25 45.25 45.10 44.84 43.67 37.18 32.94 29.04 34.95 41.34 37.99 25.31 21.43 25.07 32.61 36.67 34.47 32.23 31.74 32.72 30.68 29.38 27.51 25.65 26.32 27.04 29.70 22.41 21.90 29.58 32.94 32.49 31.46 31.73 32.05 29.01 25.88 22.88 29.03 30.31 31.37 31.90 30.22
40.34 40.01 39.91 40.11 40.60 41.33 42.03 42.08 42.22 42.52 42.95 45.25 44.48 44.37 44.34 43.19 40.42 34.56 36.81 42.77 39.85 33.79 29.71 19.04 22.99 27.65 34.60 27.68 28.64 32.63 30.09 31.13 32.14 28.49 26.79 26.42 27.93 26.87 23.36 28.56 31.36 33.34 33.71 32.31 30.93 34.77 30.78 27.22 28.86 27.67 28.52 28.51 26.85 25.82
40.39 40.55 40.41 40.49 40.77 40.75 41.58 42.10 42.55 42.87 44.97 44.48 44.14 43.61 40.01 34.83 34.04 35.42 43.10 40.98 37.63 31.18 21.66 20.14 18.88 17.38 35.16 30.95 30.58 28.94 29.39 24.45 29.08 23.85 25.51 27.16 25.41 23.36 28.45 30.54 29.03 31.62 28.89 27.17 27.48 27.43 26.30 24.83 25.30 24.57 23.71 23.78 23.17 23.25
40.26 40.60 40.21 40.24 40.51 41.13 41.17 41.86 42.65 43.63 41.84 41.50 38.19 32.98 28.99 33.86 41.36 41.14 34.52 27.37 25.55 25.95 27.53 21.43 25.60 19.33 33.70 27.31 21.80 26.22 23.74 22.32 19.87 25.57 29.96 26.04 25.86 29.26 28.70 27.34 26.66 25.67 26.00 27.23 25.17 22.11 22.24 21.36 22.08 21.93 21.18 21.94 22.23 21.49
40.31 40.51 40.53 40.37 40.40 40.24 40.98 42.20 43.15 42.02 40.22 35.97 31.96 31.17 33.44 42.82 36.61 32.27 26.52 18.58 19.00 24.52 25.64 26.30 26.34 25.07 33.92 29.03 21.65 23.82 23.25 24.38 22.22 25.37 27.09 26.34 24.05 26.62 27.78 24.96 25.46 24.33 24.24 23.03 22.36 21.13 20.28 19.94 20.10 20.17 19.85 20.32 20.75 19.76
40.35 40.45 39.93 39.93 40.13 39.94 40.76 42.40 41.60 36.77 36.33 35.46 37.00 39.03 37.95 32.45 26.14 17.75 20.37 20.67 23.75 22.14 24.73 23.10 24.04 26.63 29.72 35.61 26.79 26.66 24.60 25.00 20.53 29.51 26.85 20.82 22.27 24.28 23.18 22.65 22.55 22.66 22.31 21.25 21.91 20.40 19.70 19.00 19.27 19.13 18.23 18.43 17.76 16.90
40.46 40.51 40.21 40.32 40.11 40.22 41.01 41.64 40.21 40.65 41.06 37.51 34.32 29.26 25.37 21.54 19.06 18.84 14.86 20.07 15.63 23.66 24.65 24.54 21.67 26.16 30.04 34.30 30.09 22.36 17.20 19.45 26.73 23.02 17.07 18.90 23.80 22.48 21.95 21.87 21.04 21.78 20.89 20.18 19.38 20.29 19.29 17.75 17.69 17.87 17.14 16.67 18.31 17.38
40.53 40.48 40.51 40.37 40.69 40.42 40.82 40.03 40.80 41.40 37.59 29.43 24.65 21.37 14.40 16.22 18.28 20.15 20.88 21.59 25.06 23.68 26.25 27.54 24.48 26.19 27.34 26.84 26.74 20.20 22.42 20.54 13.43 20.50 18.45 19.60 23.34 23.53 22.91 22.79 20.96 20.07 18.93 17.64 16.66 16.89 17.01 16.81 14.36 13.97 12.21 14.24 14.78 15.61
40.42 40.60 40.31 39.93 40.01 40.01 41.10 40.19 41.16 40.91 32.85 25.96 22.48 10.08 18.35 19.24 21.91 27.02 27.64 23.42 28.65 27.07 30.84 30.50 28.45 29.04 26.50 23.30 27.80 26.82 23.73 20.00 20.28 18.41 14.30 21.19 23.78 23.19 22.03 21.35 20.25 19.34 15.06 14.44 12.34 10.73 9.07 9.90 10.22 8.23 9.67 10.20 12.83 8.26
40.33 39.48 36.22 39.83 39.34 40.67 41.56 40.99 39.82 36.25 29.85 25.00 23.76 19.17 18.83 23.30 25.96 29.87 25.94 28.85 31.08 32.31 31.66 31.75 26.77 25.21 21.53 21.98 24.83 23.02 20.72 19.25 20.05 18.60 21.72 22.78 21.53 20.94 19.84 19.17 18.10 15.37 14.60 10.20 8.16 8.07 6.47 4.79 5.07 7.21 5.88 5.67 4.04 4.40
38.36 33.68 39.83 40.05 38.81 40.82 40.43 36.41 32.93 30.38 26.99 25.26 22.76 18.55 21.33 24.79 26.02 22.53 28.21 28.30 26.11 32.06 29.18 27.73 24.49 20.02 24.89 20.29 22.48 22.22 14.55 16.94 20.54 21.02 17.77 19.17 18.19 15.10 13.95 15.76 14.34 15.72 10.35 8.71 7.75 8.08 8.49 8.94 6.21 9.06 7.93 5.96 4.83 4.96
35.38 38.41 40.32 39.71 38.87 37.31 37.55 34.41 27.28 26.32 23.38 21.97 20.73 17.64 18.33 19.93 20.24 18.69 27.36 28.77 29.74 28.98 28.30 27.66 28.20 23.53 14.48 20.14 19.52 20.64 20.54 19.25 18.51 18.24 15.45 13.63 16.28 17.34 20.03 19.22 18.45 15.39 12.27 10.97 12.09 9.41 9.16 11.95 14.63 14.73 12.40 11.53 10.59 11.44
37.53 38.80 39.90 39.23 39.15 32.51 27.52 29.27 29.65 23.30 20.00 20.81 19.34 18.57 19.49 16.15 15.74 17.93 23.99 28.67 29.34 29.59 26.76 25.80 20.68 15.41 15.67 17.09 17.82 18.35 18.30 15.26 18.27 13.68 11.21 12.07 16.54 17.50 16.70 16.84 16.49 13.76 11.79 10.87 14.73 12.93 9.52 8.79 9.47 9.45 10.49 14.52 7.47 10.85
40.41 40.09 39.92 40.51 39.71 30.00 27.60 27.07 31.69 26.36 22.80 25.15 23.23 21.03 20.81 15.87 20.40 25.49 24.54 24.97 28.63 27.66 19.89 16.15 11.80 14.28 15.12 19.37 16.88 20.56 19.01 20.71 19.22 16.38 12.42 14.08 16.12 15.12 13.96 14.93 10.88 9.27 12.87 12.91 9.91 15.80 15.56 12.79 9.87 10.01 8.46 8.78 6.00 3.68
38.41 37.47 39.26 36.27 32.30 31.48 28.52 26.62 26.00 26.82 25.60 24.92 24.75 24.34 17.40 22.17 19.92 19.95 24.12 25.76 20.27 14.93 12.39 10.76 9.30 18.60 12.42 16.18 16.89 23.56 22.22 21.98 19.88 17.14 15.22 12.90 9.50 13.07 9.03 8.99 13.49 16.71 13.91 15.17 12.62 7.32 6.12 5.77 6.35 8.81 3.64 2.44 0.89 2.20
33.64 39.03 32.57 34.07 29.21 29.45 28.09 29.55 27.18 28.42 26.48 24.95 24.35 25.16 17.05 16.13 17.23 16.23 23.48 17.47 10.40 12.07 12.98 10.87 11.19 12.66 15.56 14.70 16.58 18.78 17.42 18.55 17.54 19.82 16.08 17.56 13.96 12.16 12.54 14.26 14.37 6.05 6.18 7.64 11.47 7.55 5.64 7.25 11.58 8.46 3.62 2.79 5.62 2.49
37.46 35.48 31.25 30.43 25.75 24.01 24.42 29.42 23.81 25.00 18.05 18.22 24.46 21.33 17.87 18.77 20.83 24.70 11.53 16.16 11.00 13.73 10.71 14.92 9.33 10.51 14.54 9.10 17.20 17.08 16.00 19.59 17.88 16.57 16.60 17.14 15.47 12.28 10.83 8.35 14.04 11.47 6.63 7.35 11.23 9.32 6.68 7.55 5.85 3.35 2.94 6.08 8.69 8.69
34.93 28.27 27.07 26.97 24.78 19.39 24.99 21.67 27.32 25.97 23.09 20.43 21.39 20.45 21.27 20.89 20.40 14.40 13.44 7.09 11.02 15.51 13.85 13.19 17.04 14.08 15.47 17.92 15.56 11.95 10.37 15.74 14.06 11.85 13.28 15.82 13.23 6.93 11.25 9.95 9.48 7.97 10.13 10.94 9.68 6.91 6.00 0.89 2.05 8.22 -0.32 3.83 -1.04 -0.09
22.69 20.46 20.31 17.94 22.65 19.12 21.38 20.86 21.15 22.10 18.92 20.99 20.33 18.72 15.79 18.18 8.67 7.81 11.80 9.91 16.59 11.40 14.45 15.67 16.52 16.84 13.99 8.61 5.99 8.28 9.50 17.33 15.36 14.48 11.25 10.72 6.75 9.85 9.66 9.69 8.72 6.79 7.74 10.24 3.17 4.44 7.66 -0.00 -1.27 -1.34 -0.38 -4.08 2.04 -0.82
15.04 15.47 17.94 17.18 16.73 18.91 21.42 18.36 20.02 18.80 18.23 18.52 18.16 17.60 12.70 8.87 12.57 9.54 14.48 10.78 9.43 11.03 13.65 15.46 15.94 14.16 14.55 14.70 10.89 10.67 12.20 15.12 15.88 10.25 8.63 10.39 12.75 12.75 8.62 6.24 1.72 3.91 4.70 0.09 -0.09 -1.91 -1.54 2.90 5.56 4.23 -2.47 0.43 -0.44 -4.81
11.14 10.93 19.75 24.91 23.95 24.20 16.18 19.51 23.11 16.34 14.59 17.47 13.71 8.59 7.96 8.65 5.26 10.88 15.19 12.75 13.28 10.90 17.05 18.04 19.48 18.17 15.52 12.35 13.24 10.98 13.57 14.67 12.74 12.33 11.58 11.67 10.82 9.41 11.41 8.78 2.33 3.08 3.53 0.07 -2.45 -1.91 -2.99 -4.99 -4.26 -3.54 -3.36 7.09 1.88 -2.31
16.05 16.86 12.32 10.94 13.43 18.26 10.79 16.21 10.77 10.62 14.36 19.84 16.36 9.64 7.88 7.70 8.85 13.75 14.80 12.89 14.83 19.43 18.28 19.88 21.56 19.60 17.03 15.54 13.82 13.05 12.78 13.07 12.00 11.98 11.96 9.94 6.52 2.08 2.33 1.01 1.56 7.93 -0.67 -5.00 -4.26 -6.26 -4.81 -5.17 -2.09 1.14 -1.73 2.57 1.71 -4.26
11.07 14.65 14.59 6.39 7.29 9.37 8.15 10.80 10.21 13.75 14.81 13.73 10.45 6.95 6.08 10.47 10.63 13.77 16.00 15.91 19.25 18.73 16.58 15.06 15.02 15.63 13.77 10.09 6.20 12.38 12.68 12.55 7.21 -1.00 -5.71 -5.17 -3.18 1.16 -3.18 -3.55 -4.09 -4.63 -4.99 0.61 6.24 -0.27 -2.45 -4.27 -2.93 -1.74 -2.81 -1.68 -3.58 -8.98
11.84 17.00 6.93 0.37 3.41 5.92 5.41 8.70 8.00 6.45 11.95 11.16 12.33 12.18 10.90 8.42 9.09 14.72 18.55 18.71 16.38 15.34 14.75 15.12 15.11 14.22 11.50 10.21 7.32 3.71 0.61 -0.33 4.18 5.15 1.11 1.58 1.74 -2.02 -7.35 -5.71 -5.71 -7.35 -8.80 -7.16 -5.71 -2.87 4.44 -4.45 1.18 -1.49 -6.56 -7.94 -9.52 -8.83
16.21 13.56 11.94 6.29 1.59 3.57 4.76 3.57 1.40 4.24 2.47 4.89 1.65 4.18 5.07 4.74 8.76 12.54 14.89 13.07 15.28 14.84 13.67 11.43 5.69 11.32 10.69 10.50 9.19 5.91 4.52 2.87 -1.77 2.78 2.96 4.01 1.64 -0.80 -4.09 -7.71 -8.98 -8.61 -9.16 -8.98 -9.35 -9.43 -9.35 -8.07 -6.81 -7.63 -10.10 -12.06 -14.78 -14.60
7.98 10.49 8.92 7.14 5.22 3.82 2.96 2.21 -0.28 0.25 -1.36 0.44 3.16 -0.27 1.98 1.20 1.42 5.13 12.66 18.01 16.52 14.24 11.76 13.28 12.74 11.56 10.65 10.33 6.90 3.26 6.11 6.15 3.62 5.23 3.89 3.00 -0.03 -4.12 -5.37 -6.09 -8.80 -7.61 -7.61 -9.52 -10.63 -10.99 -10.25 -6.44 -8.61 -9.16 -12.42 -14.23 -16.23 -16.95
6.92 4.20 5.89 2.56 -0.02 -0.73 0.94 4.07 6.19 3.80 2.68 -0.82 -0.28 2.77 3.87 6.58 5.96 9.10 7.43 13.80 18.86 16.44 14.47 12.56 10.75 10.55 9.48 9.00 8.02 5.04 5.20 1.79 1.86 8.77 5.03 3.30 -2.05 -3.36 -6.80 -7.90 -9.02 -6.21 -3.32 -6.67 -9.21 -7.94 -9.97 -10.46 -14.96 -16.05 -17.50 -17.68 -19.13 -19.85

GFSWCAN_sfc_wetblb_129.txt.gz
Wetbulb
40.98 43.35 43.40 45.45 45.96 45.79 45.86 45.93 45.60 45.57 45.76 46.09 46.11 46.04 45.67 45.17 43.50 39.12 36.81 39.53 34.96 30.61 32.68 35.81 35.92 31.04 29.79 28.11 25.59 28.54 27.56 28.13 25.41 20.89 22.24 20.17 21.01 24.82 23.58 26.12 25.71 22.20 20.17 16.37 20.67 17.83 14.48 29.42 29.53 23.58 27.54 30.80 31.54 32.59
40.91 41.70 43.47 42.98 44.65 46.05 45.70 45.78 45.72 45.65 45.90 45.85 46.11 46.06 45.88 45.20 43.45 41.07 36.12 40.38 39.91 33.67 32.83 36.50 36.71 37.18 35.63 33.43 29.53 28.47 28.12 28.28 28.61 25.01 24.84 24.56 22.30 20.18 22.70 16.86 26.97 18.64 22.18 19.50 21.54 20.30 29.14 30.59 29.93 31.82 32.45 30.59 31.38 32.78
40.45 40.96 42.35 43.64 43.38 44.26 46.05 45.70 45.49 45.44 45.74 45.92 45.93 46.27 45.95 44.91 43.75 41.17 36.96 37.77 35.64 30.68 29.11 30.32 30.37 35.53 38.75 37.21 35.53 28.28 28.77 32.62 30.22 29.03 23.74 22.91 19.70 22.51 16.87 19.67 19.67 25.29 30.36 23.48 25.45 26.52 28.96 29.90 32.46 31.87 31.95 32.43 32.43 33.76
39.62 40.64 41.08 43.00 43.71 43.77 45.15 45.72 45.39 45.21 45.34 45.56 45.77 45.90 45.76 45.18 43.87 41.16 37.05 37.65 35.42 30.54 23.52 28.62 37.69 34.00 38.28 37.54 35.79 34.48 33.12 33.57 32.54 30.03 23.40 21.24 22.40 27.02 21.04 23.19 19.47 22.24 25.05 22.75 25.47 28.59 31.01 31.75 31.50 29.88 31.24 33.64 33.35 33.05
39.63 39.90 41.23 42.42 43.22 43.63 44.20 45.30 45.39 44.99 45.29 45.56 45.57 45.74 45.62 44.79 43.07 39.09 37.38 38.38 38.89 31.28 25.37 28.02 32.97 36.02 37.18 36.15 34.72 33.77 32.09 29.24 27.29 25.38 21.50 21.63 26.54 25.71 25.46 25.00 17.60 25.23 21.67 19.14 18.61 27.48 26.71 29.92 32.25 30.53 30.29 30.92 33.76 30.16
39.71 39.82 40.26 41.77 42.51 42.69 43.24 44.28 45.50 45.44 44.86 45.25 45.41 45.53 45.34 43.91 41.33 34.80 27.93 34.72 39.11 36.59 27.21 21.23 30.85 32.49 34.99 34.78 33.09 31.74 30.99 28.60 27.44 26.20 23.38 26.77 29.17 25.53 18.94 20.85 26.73 32.28 31.88 28.07 26.20 32.07 31.69 32.85 30.21 29.99 29.94 32.68 31.77 28.23
39.61 39.88 40.29 41.28 42.31 42.46 42.38 42.72 44.80 45.43 45.36 45.25 45.14 45.23 44.77 42.65 36.46 30.64 28.87 34.05 40.42 36.60 25.34 20.12 24.33 31.05 34.75 33.47 32.09 30.67 31.54 30.31 28.78 26.89 25.02 25.73 26.53 27.76 21.37 21.03 27.21 31.14 31.59 31.40 31.02 31.20 28.12 24.87 22.70 27.84 29.78 29.69 29.62 28.12
39.90 39.87 40.18 40.85 41.83 42.39 41.74 42.42 44.01 44.80 44.90 44.72 45.08 44.51 43.31 42.64 39.72 34.37 36.92 42.13 38.90 32.68 29.06 18.66 22.48 27.03 33.71 27.59 28.99 30.76 29.46 30.30 29.22 27.85 27.54 26.11 27.39 25.92 22.13 26.61 28.64 31.59 31.39 29.97 31.86 31.03 27.15 26.59 27.14 26.13 26.37 26.74 25.20 24.55
40.19 40.22 40.62 40.70 41.14 42.04 41.83 42.05 43.50 44.59 44.78 45.07 44.42 42.34 38.04 33.73 33.49 37.18 41.95 39.58 36.42 30.95 22.51 20.78 20.09 18.36 34.54 29.85 29.83 29.17 29.39 23.41 28.19 23.66 25.43 26.41 24.90 23.05 26.92 29.02 29.61 33.15 30.33 26.10 25.85 25.41 25.65 25.91 24.56 23.85 23.52 23.14 22.80 22.75
40.68 40.64 40.81 40.94 41.27 41.62 42.13 42.43 42.92 44.46 44.56 42.34 38.45 31.93 28.57 31.10 41.76 40.36 34.17 27.09 25.10 25.92 28.00 20.88 24.56 19.48 32.54 25.22 23.38 20.31 23.09 21.01 16.90 24.34 27.86 23.83 24.10 26.40 25.16 25.58 25.67 24.55 26.85 27.25 24.68 23.10 22.83 21.57 22.85 21.68 20.76 21.43 21.54 20.77
40.62 40.84 40.80 40.46 40.62 41.08 41.48 42.41 43.48 44.12 41.20 35.51 31.09 29.23 31.87 41.91 33.04 26.67 24.09 18.09 18.72 20.55 24.34 25.83 25.26 24.01 33.36 24.88 22.14 22.04 22.45 23.57 19.10 23.30 22.81 24.23 21.06 25.05 23.99 22.99 24.10 24.27 24.08 23.03 22.44 21.17 20.56 20.86 20.68 20.41 19.68 20.44 19.64 19.14
40.19 40.19 39.88 40.06 40.17 40.68 40.60 41.49 41.14 38.43 35.81 36.01 36.67 39.57 37.47 32.47 25.95 17.67 13.93 20.31 22.97 21.10 23.78 22.16 23.27 25.92 31.25 34.06 26.95 26.36 22.75 25.16 19.58 29.19 26.25 19.19 19.27 21.95 22.51 22.85 23.10 22.64 22.22 21.48 21.64 20.18 19.71 19.56 19.92 19.11 18.26 18.45 17.30 17.59
40.79 40.70 39.86 39.92 40.03 40.00 41.36 41.71 40.73 40.70 41.50 38.05 33.97 29.38 25.32 23.20 17.05 13.14 13.79 19.51 18.55 22.86 22.78 23.37 19.67 25.18 29.97 31.64 25.79 22.78 21.86 20.87 26.16 20.78 16.56 16.33 21.09 22.64 22.82 21.65 20.80 21.43 21.09 20.34 19.90 19.87 18.86 17.39 17.51 17.56 15.92 15.72 17.68 15.96
40.64 40.68 40.16 39.81 39.81 40.57 41.71 41.10 41.72 41.24 36.15 29.85 25.90 21.48 14.60 18.34 17.27 18.68 19.85 20.90 23.72 22.54 23.86 25.74 22.65 24.23 24.84 26.93 29.29 20.39 20.96 26.34 12.48 13.58 16.92 19.57 20.89 22.35 22.07 21.90 21.24 19.14 18.55 17.39 17.10 17.47 16.89 15.74 14.50 13.54 9.55 11.59 12.03 13.32
40.58 40.54 40.06 39.65 40.24 40.12 39.96 40.94 42.13 39.67 31.53 26.34 24.32 15.19 18.83 16.99 19.18 19.00 20.76 21.47 27.64 23.74 27.42 25.10 26.17 25.16 23.07 21.14 26.03 24.58 23.39 20.96 18.06 18.32 13.53 16.76 22.61 22.20 21.26 21.63 19.57 17.00 13.07 12.20 10.19 8.09 5.55 7.15 9.55 6.47 6.74 6.94 10.43 4.96
40.67 39.51 35.55 39.92 40.22 40.16 38.77 39.75 38.54 37.01 29.06 24.79 22.94 21.12 24.42 24.66 25.10 28.01 28.07 27.49 31.10 29.97 26.68 27.40 28.51 22.43 23.91 22.01 24.49 21.98 17.69 11.18 15.58 17.36 20.65 22.75 21.60 20.87 19.28 17.92 16.01 14.21 12.88 10.08 8.86 8.68 5.53 3.61 4.64 5.03 1.27 2.19 0.13 0.95
37.66 31.74 39.31 40.04 40.53 40.10 37.14 34.47 35.21 30.28 28.10 24.29 22.86 24.18 24.64 12.93 21.32 18.65 27.04 29.12 31.05 26.83 21.37 28.76 20.69 20.81 23.93 20.19 23.32 23.92 14.76 12.22 19.27 21.40 16.94 18.19 16.90 16.12 15.70 16.40 14.27 13.23 9.29 6.96 6.22 6.92 6.49 6.18 4.82 8.62 7.54 4.51 2.15 2.94
32.18 37.74 39.64 39.95 38.77 37.01 34.26 35.72 28.41 26.12 21.67 22.67 16.64 21.28 14.31 16.82 15.65 17.69 24.88 27.68 26.80 26.90 27.76 26.49 29.57 24.32 14.16 17.89 14.89 15.70 19.06 18.50 19.42 14.78 12.71 12.22 13.79 12.53 17.37 15.71 15.49 14.49 10.43 8.00 9.48 7.61 7.51 8.92 9.90 9.73 10.05 6.99 6.85 7.16
37.09 37.96 39.50 38.92 37.33 34.45 30.25 28.87 28.48 21.60 20.32 16.27 22.61 17.62 13.70 18.44 22.91 21.86 18.30 21.08 25.20 28.64 28.33 25.95 15.24 16.23 18.09 15.60 16.57 9.77 15.39 11.66 16.00 10.11 7.60 7.52 14.34 16.53 17.50 16.35 13.66 9.30 8.36 8.10 12.13 10.05 7.55 6.48 7.87 7.33 8.84 8.95 5.95 7.02
40.04 39.34 39.05 39.43 39.40 29.56 27.11 25.92 29.23 23.32 17.61 23.23 19.21 16.09 14.94 12.44 14.51 15.48 15.46 21.66 27.89 25.32 20.52 15.86 15.38 13.83 15.35 10.92 11.83 14.39 15.55 18.61 18.24 15.13 11.12 8.78 8.02 10.50 10.17 11.85 8.72 7.95 9.81 9.30 8.37 11.94 9.99 9.39 7.82 7.65 6.39 4.50 2.45 2.39
38.19 38.52 39.30 38.52 31.34 29.66 27.10 24.98 24.67 23.65 22.88 18.72 21.06 22.30 14.60 20.47 21.65 23.52 23.52 26.48 22.79 12.64 12.47 8.66 5.93 18.85 19.42 21.65 11.90 20.59 19.50 20.27 17.54 15.45 14.92 10.64 5.42 12.64 7.74 6.61 11.63 11.43 10.00 6.27 7.42 4.15 3.69 4.78 4.43 6.09 0.88 -1.28 -2.76 -1.03
32.61 39.74 30.66 32.43 27.80 28.26 26.74 27.75 25.77 26.74 24.32 22.44 22.17 23.93 15.13 14.20 13.53 13.82 22.07 17.87 12.23 10.27 10.48 8.09 17.67 17.20 17.39 16.93 10.32 14.47 15.99 15.40 14.27 15.61 13.85 15.24 8.79 8.62 7.57 7.21 11.42 3.97 5.97 6.74 7.95 4.11 3.49 5.75 8.09 6.25 1.18 -0.02 1.41 0.20
36.57 34.38 29.88 29.37 23.81 24.30 22.73 28.29 23.13 24.26 17.77 18.47 23.90 18.23 12.81 14.74 18.60 24.35 9.30 14.06 9.53 9.64 8.61 7.84 6.60 6.74 12.55 9.70 16.15 14.34 12.16 17.91 14.46 13.23 13.82 10.32 7.49 5.93 8.50 7.52 9.65 7.85 6.15 6.15 7.43 6.63 4.27 4.75 3.87 -0.21 -0.93 0.32 2.52 -0.04
34.08 26.91 23.74 24.20 23.20 19.48 23.77 21.65 27.06 24.70 21.98 19.26 17.81 16.20 18.18 18.67 19.65 13.11 10.22 5.68 7.38 13.60 10.80 9.22 16.45 16.17 17.65 17.89 13.82 10.48 9.13 15.40 14.07 12.21 13.79 15.23 11.94 6.46 7.73 9.29 8.21 6.96 9.40 9.77 8.18 4.58 2.78 -1.38 -1.48 2.70 -4.36 -4.36 -7.63 -4.91
22.31 19.88 19.68 19.19 20.73 18.58 20.83 20.49 20.69 20.21 15.46 17.96 19.02 16.19 15.90 17.16 7.95 5.48 8.96 7.74 14.84 10.21 10.32 13.92 15.26 16.68 13.64 8.33 9.02 8.13 7.83 16.66 15.95 13.81 7.17 11.35 8.54 9.05 7.91 7.75 5.79 4.87 6.41 4.77 -0.20 0.17 -0.01 -6.00 -6.72 -4.91 -3.46 -6.90 0.68 -3.10
11.53 13.58 17.23 15.99 15.77 18.28 18.84 15.10 16.69 17.00 17.83 16.69 15.27 15.50 12.27 7.03 7.69 6.76 13.36 7.78 6.81 9.25 13.02 14.45 13.92 11.78 12.22 14.38 13.02 12.49 9.83 11.91 16.00 10.79 6.26 11.21 13.07 10.48 6.67 5.66 1.93 3.62 2.99 -0.21 -0.77 -4.73 -2.19 -1.46 -0.93 -0.78 -4.00 -3.28 -4.05 -7.45
15.68 12.94 19.87 24.58 23.98 23.76 19.43 17.81 21.14 16.38 11.03 12.80 10.97 8.07 7.05 6.24 4.25 10.59 11.60 10.18 11.40 9.70 17.22 17.41 17.89 17.49 15.36 10.61 11.28 10.77 13.61 12.04 12.93 12.62 10.31 10.53 10.71 11.87 11.26 6.89 1.98 4.44 3.40 0.06 -2.91 -2.59 -3.10 -4.55 -5.27 -5.09 -4.91 -2.39 0.01 -2.06
16.07 16.83 13.79 12.58 15.60 17.95 11.89 11.18 11.77 11.53 13.87 17.47 13.23 6.36 5.76 7.48 11.11 11.34 12.65 11.12 9.59 17.83 18.83 18.58 19.19 18.52 16.75 14.46 12.22 12.04 10.93 10.83 10.07 10.39 10.58 9.06 6.31 2.15 0.73 4.19 4.76 7.06 -1.87 -6.54 -6.00 -10.17 -8.72 -8.35 -7.99 -7.27 -3.10 -1.46 -2.01 -8.90
12.41 14.53 15.77 9.11 6.97 8.24 9.62 12.54 11.29 12.06 13.66 12.74 8.41 6.20 7.87 10.18 6.82 9.02 14.83 11.71 15.65 18.78 17.00 14.87 11.02 12.59 10.89 8.11 4.28 10.40 11.29 10.73 5.49 -1.19 -5.30 -5.82 -4.55 0.38 -5.09 -6.36 -6.18 -7.45 -7.27 -4.01 1.80 -2.37 -3.46 -5.09 -3.82 -4.73 -6.72 -7.08 -12.34 -17.24
11.55 15.59 6.17 -1.13 4.25 5.99 4.04 7.30 6.05 3.86 10.29 10.75 11.46 10.96 10.17 6.54 6.79 10.36 13.66 13.74 16.05 16.26 15.15 14.43 13.20 13.20 11.07 10.21 2.87 1.07 -4.37 -3.64 1.17 7.20 5.02 0.47 2.10 -3.20 -5.82 -7.27 -7.99 -10.89 -12.70 -7.45 -6.54 -5.09 2.71 -4.18 -2.02 -9.61 -9.83 -11.25 -13.43 -13.07
15.51 13.68 10.17 4.45 1.21 -0.89 1.56 -1.50 -2.95 -0.06 -2.58 1.07 -3.82 2.94 5.26 4.24 5.69 5.61 13.07 8.59 10.58 13.07 12.44 11.31 4.14 11.40 10.30 8.73 8.99 7.67 4.50 0.31 -1.96 1.69 -0.33 -1.03 -0.32 -0.54 -2.98 -8.53 -11.44 -13.25 -12.89 -10.35 -11.07 -11.62 -12.70 -13.43 -11.80 -12.52 -13.43 -14.34 -16.69 -17.60
5.99 9.24 7.93 6.10 3.80 1.14 -2.09 -0.94 -2.74 -2.74 -5.82 -2.38 -0.45 -4.18 0.18 1.91 2.80 5.37 8.79 15.53 14.43 13.04 8.49 11.85 10.85 9.16 8.40 9.40 8.03 5.97 9.77 8.20 4.93 4.51 5.15 5.21 2.14 -0.06 -2.30 -6.00 -9.28 -7.17 -6.60 -10.17 -12.89 -12.16 -11.44 -9.08 -14.70 -15.42 -16.33 -16.51 -18.69 -19.41
3.17 2.46 1.89 -1.66 -0.34 -0.83 -2.57 -0.50 1.07 -0.08 -0.82 -2.73 -4.55 -3.46 -1.06 2.83 3.65 5.64 4.60 9.42 15.18 15.32 13.02 12.40 5.87 10.81 10.89 10.75 8.48 4.75 5.80 5.88 5.46 10.17 7.65 7.03 3.04 1.63 -1.97 -5.52 -5.41 -3.95 -3.85 -8.04 -11.98 -10.57 -11.63 -11.25 -16.33 -17.42 -19.77 -20.32 -21.23 -22.13

GFSWCAN_sfc_wetblb_132.txt.gz
Wetbulb
41.60 42.43 44.82 45.77 45.51 44.99 44.94 45.05 45.20 45.46 45.46 45.45 44.58 45.03 44.43 44.07 43.85 39.29 36.81 38.83 34.88 31.36 32.13 35.04 35.63 30.52 29.64 29.80 27.36 29.41 28.51 28.28 26.00 22.58 23.38 21.07 21.48 24.84 23.49 25.72 25.10 22.15 19.09 15.50 20.44 18.11 14.56 28.41 27.72 23.63 26.05 30.58 30.74 31.28
39.88 42.65 42.17 45.02 45.33 45.30 45.15 44.81 44.29 45.31 45.60 45.55 45.46 45.55 44.29 43.85 43.63 41.29 35.22 38.87 38.96 34.24 32.39 36.00 36.26 36.89 35.49 33.60 30.28 28.83 29.08 28.91 28.82 24.97 24.72 25.31 23.12 21.27 22.40 17.00 26.16 17.65 21.66 19.77 21.49 19.39 27.79 28.77 27.81 30.70 30.40 30.91 31.23 31.54
40.50 40.95 41.90 42.37 44.79 45.35 45.35 45.04 44.74 45.06 45.03 45.37 45.78 45.25 43.95 44.62 44.26 41.00 36.44 36.69 34.95 30.94 30.29 31.82 31.49 36.17 38.38 36.13 36.29 29.54 29.15 32.37 29.55 29.32 24.61 23.96 20.63 23.06 16.82 19.45 19.55 25.18 28.90 23.22 25.87 25.39 27.70 29.19 30.18 30.64 29.59 29.93 33.31 33.17
39.75 39.91 42.49 42.17 43.33 45.28 45.09 45.15 44.94 44.53 44.95 45.25 45.63 45.39 44.72 44.17 43.74 41.63 37.07 37.69 35.05 30.84 26.74 29.01 37.63 33.87 37.56 36.94 35.61 35.22 33.64 33.49 32.09 29.92 24.95 22.46 22.41 26.51 20.75 22.09 18.77 21.39 24.62 22.07 25.57 28.09 29.04 29.58 29.48 28.98 29.14 31.71 33.21 33.18
39.11 40.39 40.83 43.16 42.31 43.87 45.28 44.92 44.85 44.80 44.87 45.18 45.43 45.10 44.06 43.75 42.77 39.58 38.22 38.51 38.31 31.62 26.15 28.31 33.23 35.74 36.38 35.77 34.20 34.19 32.45 29.50 27.92 26.04 23.00 21.96 26.18 25.53 25.01 24.68 16.75 24.15 19.12 17.66 16.78 26.01 26.19 27.95 29.55 29.81 28.98 31.76 30.90 29.45
39.27 39.84 40.70 42.67 43.50 43.80 45.05 45.18 44.67 44.97 44.90 45.16 45.44 44.71 43.76 42.36 39.80 35.73 30.19 35.10 39.40 36.10 27.88 23.94 31.09 32.43 34.15 33.64 32.31 31.43 30.66 28.60 27.40 25.74 23.22 26.30 28.72 25.12 18.59 20.23 25.91 25.77 28.75 23.81 23.19 29.78 28.45 29.51 28.81 28.30 27.72 31.10 29.99 25.26
39.47 39.43 40.06 41.92 42.74 43.03 44.17 44.68 44.73 44.86 44.93 45.04 45.13 44.61 42.74 42.19 37.04 31.25 30.49 34.21 39.70 35.95 26.85 23.25 26.37 30.54 33.46 32.48 30.78 29.50 30.44 28.43 28.07 25.93 24.46 25.26 26.01 27.27 20.75 20.47 26.02 29.96 29.87 29.55 29.72 31.53 27.15 25.25 21.90 26.92 28.61 27.88 28.18 26.09
39.21 39.58 40.08 41.58 42.36 42.46 43.31 44.73 44.77 44.95 44.90 44.88 44.79 43.49 42.99 42.18 40.05 36.64 39.67 40.96 37.96 31.79 29.16 22.06 25.15 27.83 32.78 26.11 27.07 29.11 27.73 28.26 28.00 26.88 25.89 25.81 26.98 25.49 21.41 25.74 26.97 29.78 29.80 29.84 29.29 29.72 26.88 25.86 26.38 25.14 25.07 25.16 24.13 23.07
39.44 39.55 40.08 41.08 42.17 41.77 42.41 44.52 45.09 44.80 45.08 44.42 42.78 41.54 37.01 33.75 32.59 37.35 40.93 38.56 35.54 31.00 23.08 19.81 20.41 20.16 33.34 28.18 28.37 28.08 28.15 19.35 27.30 24.01 27.56 27.20 24.54 22.60 26.17 27.97 28.36 29.97 29.81 25.94 26.39 26.77 25.99 24.56 23.84 23.25 23.08 22.64 22.01 21.10
40.13 39.85 40.32 41.17 41.90 41.81 42.08 43.85 44.85 44.70 43.67 42.42 37.10 30.33 23.13 32.77 41.67 38.83 31.98 28.07 26.39 26.42 27.48 20.64 24.45 25.32 29.80 26.91 23.45 23.09 25.48 22.96 15.84 24.01 27.68 23.95 23.67 23.48 23.70 23.22 24.29 25.89 27.14 27.35 24.36 22.55 22.40 22.47 23.12 21.73 20.85 21.23 20.84 19.68
39.96 39.99 40.39 40.53 41.30 41.87 42.30 43.37 44.26 42.37 40.66 35.53 30.32 25.74 32.73 40.72 31.90 26.69 17.37 19.23 19.91 21.20 24.72 25.05 25.02 26.98 33.81 22.55 20.48 21.20 21.15 23.48 19.65 22.44 22.42 22.26 19.61 23.68 23.88 23.56 24.77 25.08 24.24 22.44 21.94 20.76 20.21 21.24 21.06 20.76 20.01 20.38 19.05 18.86
40.06 39.91 40.30 40.36 40.89 41.55 42.39 43.13 42.42 38.06 36.39 35.01 36.33 38.54 35.69 29.06 21.95 17.77 13.81 21.16 22.69 21.10 24.06 22.69 23.74 26.79 31.93 33.63 24.81 25.20 23.83 24.50 18.28 28.10 23.02 15.33 16.60 21.43 22.56 23.03 22.21 22.36 21.92 20.93 20.77 19.37 19.65 19.91 19.88 18.82 18.10 17.81 17.01 17.36
40.54 40.02 40.01 40.16 40.46 40.46 41.30 42.61 40.87 40.94 40.89 37.13 33.65 28.47 24.99 20.13 12.04 11.09 10.83 17.66 18.64 22.80 22.50 22.39 17.99 24.74 30.95 31.31 26.77 24.76 22.23 18.59 26.56 20.31 15.54 15.76 19.92 22.64 22.58 21.25 20.25 21.16 20.95 20.28 19.15 18.63 17.88 16.45 16.40 16.84 14.92 14.61 15.75 14.13
40.71 40.53 39.86 39.96 40.26 39.93 41.91 41.81 41.67 41.04 36.08 29.98 24.74 15.85 16.98 17.41 15.43 17.63 19.37 19.82 22.23 22.29 23.40 24.15 21.62 22.95 26.65 23.93 21.07 21.04 20.35 25.27 15.05 10.94 12.41 14.08 19.87 21.63 21.20 20.92 19.85 17.37 17.41 17.18 16.71 16.91 15.31 14.44 12.23 10.62 7.44 8.75 9.24 11.47
40.60 40.35 39.68 39.43 39.98 40.58 40.03 40.99 40.64 39.57 32.65 26.92 23.62 14.50 14.32 15.95 18.37 15.59 18.34 21.09 26.62 22.86 25.76 23.76 24.21 24.05 21.89 18.22 23.04 22.64 22.67 20.04 17.78 12.00 11.74 11.46 21.19 21.20 19.80 20.45 16.69 13.42 9.68 8.90 6.59 6.76 4.02 6.25 7.93 5.02 4.32 5.00 8.27 3.56
39.96 38.80 35.30 39.94 40.44 39.98 38.43 38.12 38.10 36.10 29.21 26.75 24.28 21.49 22.48 23.05 22.48 14.15 19.92 24.14 30.55 28.38 25.39 25.77 24.97 19.65 17.52 20.35 21.59 13.68 14.85 12.30 13.16 12.27 15.48 21.78 20.27 19.32 18.38 16.73 13.86 11.86 11.34 7.72 5.13 5.85 3.75 2.69 4.30 4.41 -0.31 0.65 -1.66 -0.78
37.31 31.86 39.64 39.86 38.11 36.21 35.14 35.51 34.37 29.06 27.27 24.26 22.55 24.30 18.32 17.32 21.40 18.78 20.69 28.65 31.31 23.80 16.85 21.00 17.42 19.25 21.33 16.87 20.15 22.03 15.18 13.72 16.53 21.99 22.64 17.76 16.91 14.86 14.03 15.39 13.15 12.59 10.47 8.74 5.39 5.88 4.82 4.44 2.34 6.16 6.67 3.97 1.35 2.48
31.87 37.57 39.88 39.10 36.99 34.17 33.84 35.31 28.17 26.26 22.09 22.79 19.55 21.76 23.26 19.25 23.75 24.69 26.10 28.78 30.16 26.92 24.18 22.79 29.24 22.42 12.63 16.02 13.37 13.72 13.21 20.27 21.74 18.74 11.48 12.93 14.06 13.35 17.10 14.64 13.90 13.38 10.02 6.57 8.46 5.82 5.29 6.34 7.43 6.49 8.14 4.66 3.96 6.49
36.67 37.48 38.88 38.78 36.96 34.14 31.33 28.57 29.02 21.34 21.40 22.88 23.56 19.83 17.62 23.22 24.16 24.12 24.97 26.48 26.49 25.78 27.96 24.83 15.94 18.04 15.99 14.00 10.32 9.39 16.32 15.76 16.39 10.60 4.88 4.22 12.12 14.37 13.99 13.26 12.01 9.05 9.00 7.68 10.78 9.28 5.91 5.51 6.85 6.65 9.46 8.13 5.06 3.77
40.09 39.39 39.82 38.46 38.29 29.28 27.19 26.70 28.05 22.83 16.91 18.60 18.47 19.26 12.90 10.93 16.65 9.78 11.93 24.52 25.58 26.35 18.76 22.73 18.72 15.35 13.17 9.73 8.86 9.79 14.29 16.43 16.86 13.25 11.59 7.06 4.86 10.59 10.40 11.64 9.15 7.82 9.23 8.84 7.75 8.65 7.80 7.64 6.25 6.08 4.57 2.50 1.43 1.62
37.79 38.06 39.37 38.55 33.08 28.70 26.09 24.39 24.27 23.26 22.17 19.58 19.47 20.32 12.12 16.85 14.39 13.65 15.74 25.65 24.43 22.73 18.65 11.42 10.09 15.94 19.90 22.35 12.57 16.97 18.30 20.13 17.46 15.74 15.08 11.48 3.61 11.57 7.66 4.75 11.09 9.90 8.67 4.70 6.70 3.79 2.80 4.22 3.54 4.32 -1.48 -3.65 -4.91 -2.45
35.89 39.13 34.36 35.75 27.45 27.21 24.84 25.69 24.86 25.75 20.87 17.94 18.20 20.94 10.85 11.39 10.30 14.99 22.77 19.25 15.80 12.52 10.58 7.69 10.69 16.72 21.25 19.35 9.23 12.19 13.75 14.07 13.31 14.61 13.01 13.79 9.70 7.74 5.97 7.03 11.22 4.88 5.01 3.39 7.76 4.26 2.45 4.20 6.64 4.27 -0.95 -3.28 -0.93 -1.53
37.46 34.56 28.04 27.49 21.14 18.71 18.27 24.71 19.90 22.11 14.26 16.04 22.74 16.58 14.46 14.75 17.13 23.68 12.64 15.72 10.96 7.26 6.66 6.01 11.38 15.32 18.76 14.99 12.18 11.49 10.41 16.20 13.33 12.64 12.87 9.18 5.87 6.04 7.83 5.25 7.43 6.09 3.98 4.14 5.63 5.27 3.19 2.99 1.59 -2.01 -3.28 -2.19 -1.46 -4.75
34.50 24.51 20.34 19.65 21.78 17.32 23.12 21.38 26.90 23.80 20.99 19.45 18.03 15.53 18.51 15.79 18.83 12.97 10.07 6.52 6.10 14.95 12.28 7.05 15.57 17.82 18.38 17.02 11.93 9.04 7.76 13.28 12.05 10.20 10.65 13.31 10.45 5.05 6.28 7.26 5.85 5.68 8.67 9.52 7.78 2.81 1.15 -3.09 -3.83 0.14 -6.90 -7.63 -10.89 -8.35
21.58 19.55 19.45 16.74 21.48 21.26 20.45 19.80 20.00 19.17 13.19 14.61 15.71 13.03 14.91 16.59 7.82 5.97 7.34 8.72 12.56 16.04 11.27 14.82 14.53 14.43 13.55 6.14 10.16 8.65 7.72 16.00 15.07 13.32 5.95 9.45 7.71 9.91 9.42 9.28 7.20 5.05 5.70 4.84 -0.19 -1.82 -4.00 -8.90 -9.08 -6.54 -5.09 -8.17 -0.19 -4.91
16.96 18.83 18.29 15.61 18.38 20.11 18.81 14.47 16.16 15.54 15.26 13.53 13.35 15.06 13.13 7.89 6.29 6.29 12.55 7.55 5.56 8.53 10.08 15.20 12.73 10.75 10.42 11.56 11.98 10.31 9.88 12.09 16.47 12.10 6.29 12.31 13.51 11.77 7.05 6.74 3.76 4.49 3.15 1.03 0.14 -4.36 -3.28 -4.36 -4.36 -2.19 -5.09 -4.37 -5.63 -8.71
15.20 13.09 19.51 24.41 23.79 23.68 19.43 18.71 21.07 17.04 11.97 10.81 11.66 8.43 8.96 5.03 3.81 11.18 11.47 10.14 11.16 9.64 14.47 16.61 16.96 17.33 14.92 10.91 11.11 10.21 11.02 11.43 11.52 12.03 11.10 10.19 9.47 10.16 10.71 7.98 3.14 5.16 3.94 1.60 -2.25 -1.89 -2.20 -2.73 -5.81 -6.72 -6.90 -8.35 -2.59 -2.11
14.62 16.39 13.14 13.63 15.47 17.73 13.74 11.60 11.62 12.20 12.55 16.72 14.13 9.67 9.06 9.37 11.48 10.29 11.32 10.28 8.84 14.64 16.84 16.53 16.77 17.76 16.37 13.89 11.61 10.03 8.35 8.76 8.77 9.25 9.42 8.07 4.76 -0.27 0.04 3.05 4.47 8.96 0.93 -5.65 -5.81 -9.98 -9.26 -6.36 -9.08 -11.25 -8.35 -3.82 -5.27 -13.06
10.25 13.26 15.60 9.65 10.45 10.52 10.35 11.48 10.73 11.32 12.59 13.41 10.53 8.15 9.38 12.10 6.74 8.53 11.42 12.05 13.10 16.85 14.76 11.70 5.97 7.98 8.91 7.48 4.83 6.85 10.33 10.76 6.23 1.17 -1.68 -4.36 -3.85 0.22 -5.99 -4.00 -1.28 -3.65 -4.73 -3.29 1.08 -2.55 -1.82 -5.27 -7.08 -6.36 -9.62 -10.53 -16.15 -21.59
10.54 14.55 8.76 2.08 7.42 9.04 6.18 7.82 5.89 3.18 8.36 9.24 10.73 10.90 9.90 6.72 4.97 5.66 9.91 13.46 14.50 12.96 13.29 12.81 10.15 10.17 9.88 10.16 5.83 3.87 -3.31 -4.36 2.09 8.36 6.50 2.21 4.50 2.92 -2.37 -2.55 -3.28 -9.62 -10.35 -2.01 -3.09 -3.82 4.88 -5.99 -5.28 -10.71 -11.98 -14.33 -16.33 -15.42
15.26 13.33 8.03 3.07 1.27 -0.58 -0.79 -3.67 -6.90 -3.82 -4.73 -2.55 -5.99 2.14 4.66 1.96 5.50 2.51 7.55 7.28 5.16 7.27 10.37 8.62 3.43 6.21 10.90 8.25 9.33 7.00 6.76 1.38 -3.32 2.02 3.74 4.66 4.63 6.15 3.59 0.48 -0.32 -3.82 -3.82 -5.63 -7.81 -11.07 -12.70 -11.98 -13.79 -14.15 -14.15 -15.06 -17.78 -18.32
7.98 10.24 10.75 8.67 5.74 2.21 -1.43 -3.65 -7.26 -5.28 -7.81 -4.19 -2.60 -7.08 -1.46 1.32 2.05 2.57 5.57 10.51 13.08 8.46 3.42 9.62 11.33 6.79 7.42 8.52 8.67 7.57 8.62 10.29 7.28 5.20 5.23 5.17 6.17 5.83 3.92 0.64 -3.18 -1.81 -1.84 -6.40 -11.98 -11.98 -10.71 -8.71 -11.07 -12.34 -14.70 -15.97 -18.69 -19.77
1.45 -1.31 -3.83 -3.47 -0.36 -1.00 -3.65 -3.41 -1.83 -2.22 -4.38 -4.73 -6.18 -8.53 -7.99 -2.33 0.98 2.17 4.94 4.37 8.81 10.75 10.64 10.38 5.99 9.77 11.05 10.58 10.59 6.52 5.66 6.35 5.88 11.04 8.69 8.08 5.64 5.15 2.36 0.94 0.70 0.30 -0.26 -2.80 -4.37 -7.28 -7.47 -10.18 -14.33 -15.06 -16.87 -18.69 -20.68 -22.31